Wetterdaten: Dienstag, 08.02.2011
Datum Zeit Temp. Innen Temp. Aussen UV X Diff Temp. Feuchte Inne Feuchte Auss Sonnenschein Luftdruck Regen ab 0,1 Wind Sonnenschein T Regendauer Windben
08.02.2011 00:00 15,0 C 10,7 C 0,0 UV-I 0,0 C 53 % 76 % 0 % 1017,1 hPa 0,0 l/m 9,6 km/h (2 Bft) 0 min 0 min 10,0 km/h (2 Bft)
08.02.2011 00:02 15,0 C 10,7 C 0,0 UV-I 0,0 C 52 % 75 % 0 % 1017,1 hPa 0,0 l/m 10,4 km/h (2 Bft) 0 min 0 min 9,7 km/h (2 Bft)
08.02.2011 00:04 15,0 C 10,7 C 0,0 UV-I 0,0 C 53 % 75 % 0 % 1017,1 hPa 0,0 l/m 10,4 km/h (2 Bft) 0 min 0 min 9,7 km/h (2 Bft)
08.02.2011 00:06 15,0 C 10,7 C 0,0 UV-I 0,0 C 53 % 75 % 0 % 1017,7 hPa 0,0 l/m 10,4 km/h (2 Bft) 0 min 0 min 9,7 km/h (2 Bft)
08.02.2011 00:08 15,0 C 10,4 C 0,0 UV-I 0,0 C 52 % 76 % 0 % 1017,7 hPa 0,0 l/m 10,4 km/h (2 Bft) 0 min 0 min 6,4 km/h (2 Bft)
08.02.2011 00:10 15,0 C 10,3 C 0,0 UV-I 0,0 C 52 % 76 % 0 % 1017,7 hPa 0,0 l/m 9,2 km/h (2 Bft) 0 min 0 min 7,4 km/h (2 Bft)
08.02.2011 00:12 15,0 C 10,2 C 0,0 UV-I 0,0 C 52 % 76 % 0 % 1017,7 hPa 0,0 l/m 8,8 km/h (2 Bft) 0 min 0 min 4,2 km/h (1 Bft)
08.02.2011 00:14 15,0 C 10,3 C 0,0 UV-I 0,0 C 52 % 76 % 0 % 1017,7 hPa 0,0 l/m 7,6 km/h (2 Bft) 0 min 0 min 12,9 km/h (3 Bft)
08.02.2011 00:16 15,0 C 10,1 C 0,0 UV-I 0,0 C 52 % 76 % 0 % 1017,7 hPa 0,0 l/m 6,8 km/h (2 Bft) 0 min 0 min 3,5 km/h (1 Bft)
08.02.2011 00:18 15,0 C 10,0 C 0,0 UV-I 0,0 C 52 % 75 % 0 % 1017,7 hPa 0,0 l/m 7,6 km/h (2 Bft) 0 min 0 min 12,6 km/h (3 Bft)
08.02.2011 00:20 14,8 C 10,0 C 0,0 UV-I 0,0 C 52 % 75 % 0 % 1017,7 hPa 0,0 l/m 6,8 km/h (2 Bft) 0 min 0 min 4,8 km/h (1 Bft)
08.02.2011 00:22 14,8 C 10,0 C 0,0 UV-I 0,0 C 52 % 75 % 0 % 1017,7 hPa 0,0 l/m 6,8 km/h (2 Bft) 0 min 0 min 24,8 km/h (4 Bft)
08.02.2011 00:24 14,8 C 9,9 C 0,0 UV-I 0,0 C 52 % 74 % 0 % 1017,7 hPa 0,0 l/m 7,6 km/h (2 Bft) 0 min 0 min 24,8 km/h (4 Bft)
08.02.2011 00:26 14,8 C 9,8 C 0,0 UV-I 0,0 C 52 % 74 % 0 % 1018,1 hPa 0,0 l/m 8,4 km/h (2 Bft) 0 min 0 min 6,8 km/h (2 Bft)
08.02.2011 00:28 14,8 C 9,9 C 0,0 UV-I 0,0 C 52 % 73 % 0 % 1018,1 hPa 0,0 l/m 8,0 km/h (2 Bft) 0 min 0 min 11,6 km/h (2 Bft)
08.02.2011 00:30 14,8 C 9,8 C 0,0 UV-I 0,0 C 52 % 74 % 0 % 1018,1 hPa 0,0 l/m 7,2 km/h (2 Bft) 0 min 0 min 5,1 km/h (1 Bft)
08.02.2011 00:32 14,8 C 9,7 C 0,0 UV-I 0,0 C 52 % 73 % 0 % 1018,1 hPa 0,0 l/m 8,0 km/h (2 Bft) 0 min 0 min 12,2 km/h (2 Bft)
08.02.2011 00:34 14,8 C 9,7 C 0,0 UV-I 0,0 C 52 % 73 % 0 % 1018,1 hPa 0,0 l/m 7,2 km/h (2 Bft) 0 min 0 min 4,8 km/h (1 Bft)
08.02.2011 00:36 14,8 C 9,6 C 0,0 UV-I 0,0 C 52 % 73 % 0 % 1018,1 hPa 0,0 l/m 6,8 km/h (2 Bft) 0 min 0 min 12,2 km/h (2 Bft)
08.02.2011 00:38 14,8 C 9,6 C 0,0 UV-I 0,0 C 52 % 73 % 0 % 1018,1 hPa 0,0 l/m 7,2 km/h (2 Bft) 0 min 0 min 10,0 km/h (2 Bft)
08.02.2011 00:40 14,8 C 9,7 C 0,0 UV-I 0,0 C 52 % 73 % 0 % 1018,1 hPa 0,0 l/m 6,4 km/h (2 Bft) 0 min 0 min 7,7 km/h (2 Bft)
08.02.2011 00:42 14,9 C 9,6 C 0,0 UV-I 0,0 C 52 % 72 % 0 % 1018,1 hPa 0,0 l/m 7,6 km/h (2 Bft) 0 min 0 min 8,0 km/h (2 Bft)
08.02.2011 00:44 14,9 C 9,6 C 0,0 UV-I 0,0 C 52 % 72 % 0 % 1018,1 hPa 0,0 l/m 7,6 km/h (2 Bft) 0 min 0 min 4,5 km/h (1 Bft)
08.02.2011 00:46 14,9 C 9,5 C 0,0 UV-I 0,0 C 52 % 72 % 0 % 1018,1 hPa 0,0 l/m 7,6 km/h (2 Bft) 0 min 0 min 7,4 km/h (2 Bft)
08.02.2011 00:48 14,9 C 9,5 C 0,0 UV-I 0,0 C 52 % 73 % 0 % 1018,1 hPa 0,0 l/m 6,4 km/h (2 Bft) 0 min 0 min 6,8 km/h (2 Bft)
08.02.2011 00:50 14,9 C 9,5 C 0,0 UV-I 0,0 C 52 % 73 % 0 % 1018,1 hPa 0,0 l/m 6,0 km/h (2 Bft) 0 min 0 min 5,5 km/h (1 Bft)
08.02.2011 00:52 14,8 C 9,4 C 0,0 UV-I 0,0 C 52 % 73 % 0 % 1018,1 hPa 0,0 l/m 5,6 km/h (1 Bft) 0 min 0 min 0,0 km/h (0 Bft)
08.02.2011 00:54 14,8 C 9,4 C 0,0 UV-I 0,0 C 52 % 73 % 0 % 1018,1 hPa 0,0 l/m 6,0 km/h (2 Bft) 0 min 0 min 19,0 km/h (3 Bft)
08.02.2011 00:56 14,8 C 9,5 C 0,0 UV-I 0,0 C 52 % 72 % 0 % 1018,1 hPa 0,0 l/m 5,6 km/h (1 Bft) 0 min 0 min 12,6 km/h (3 Bft)
08.02.2011 00:58 14,8 C 9,3 C 0,0 UV-I 0,0 C 52 % 72 % 0 % 1018,1 hPa 0,0 l/m 5,6 km/h (1 Bft) 0 min 0 min 4,2 km/h (1 Bft)
08.02.2011 01:00 14,8 C 9,3 C 0,0 UV-I 0,0 C 52 % 72 % 0 % 1018,1 hPa 0,0 l/m 4,8 km/h (1 Bft) 0 min 0 min 15,8 km/h (3 Bft)
08.02.2011 01:02 14,8 C 9,3 C 0,0 UV-I 0,0 C 52 % 72 % 0 % 1018,1 hPa 0,0 l/m 6,0 km/h (2 Bft) 0 min 0 min 14,5 km/h (3 Bft)
08.02.2011 01:04 14,8 C 9,3 C 0,0 UV-I 0,0 C 52 % 71 % 0 % 1018,1 hPa 0,0 l/m 6,4 km/h (2 Bft) 0 min 0 min 10,6 km/h (2 Bft)
08.02.2011 01:06 14,8 C 9,3 C 0,0 UV-I 0,0 C 52 % 71 % 0 % 1017,9 hPa 0,0 l/m 7,2 km/h (2 Bft) 0 min 0 min 16,7 km/h (3 Bft)
08.02.2011 01:08 14,8 C 9,3 C 0,0 UV-I 0,0 C 52 % 71 % 0 % 1017,9 hPa 0,0 l/m 7,2 km/h (2 Bft) 0 min 0 min 12,9 km/h (3 Bft)
08.02.2011 01:10 14,8 C 9,2 C 0,0 UV-I 0,0 C 52 % 71 % 0 % 1017,9 hPa 0,0 l/m 8,0 km/h (2 Bft) 0 min 0 min 4,8 km/h (1 Bft)
08.02.2011 01:12 14,8 C 9,2 C 0,0 UV-I 0,0 C 51 % 71 % 0 % 1017,9 hPa 0,0 l/m 8,4 km/h (2 Bft) 0 min 0 min 0,0 km/h (0 Bft)
08.02.2011 01:14 14,8 C 9,3 C 0,0 UV-I 0,0 C 51 % 71 % 0 % 1017,9 hPa 0,0 l/m 7,6 km/h (2 Bft) 0 min 0 min 5,5 km/h (1 Bft)
08.02.2011 01:16 14,8 C 9,3 C 0,0 UV-I 0,0 C 51 % 71 % 0 % 1017,9 hPa 0,0 l/m 6,4 km/h (2 Bft) 0 min 0 min 6,8 km/h (2 Bft)
08.02.2011 01:18 14,8 C 9,3 C 0,0 UV-I 0,0 C 51 % 71 % 0 % 1017,9 hPa 0,0 l/m 6,0 km/h (2 Bft) 0 min 0 min 4,8 km/h (1 Bft)
08.02.2011 01:20 14,8 C 9,2 C 0,0 UV-I 0,0 C 51 % 71 % 0 % 1017,9 hPa 0,0 l/m 5,2 km/h (1 Bft) 0 min 0 min 5,1 km/h (1 Bft)
08.02.2011 01:22 14,8 C 9,2 C 0,0 UV-I 0,0 C 51 % 71 % 0 % 1017,9 hPa 0,0 l/m 4,8 km/h (1 Bft) 0 min 0 min 5,5 km/h (1 Bft)
08.02.2011 01:24 14,8 C 9,1 C 0,0 UV-I 0,0 C 51 % 71 % 0 % 1017,9 hPa 0,0 l/m 4,8 km/h (1 Bft) 0 min 0 min 5,8 km/h (2 Bft)
08.02.2011 01:26 14,8 C 9,1 C 0,0 UV-I 0,0 C 51 % 71 % 0 % 1018,8 hPa 0,0 l/m 4,4 km/h (1 Bft) 0 min 0 min 3,5 km/h (1 Bft)
08.02.2011 01:28 14,8 C 9,0 C 0,0 UV-I 0,0 C 51 % 71 % 0 % 1018,8 hPa 0,0 l/m 3,6 km/h (1 Bft) 0 min 0 min 9,7 km/h (2 Bft)
08.02.2011 01:30 14,8 C 9,0 C 0,0 UV-I 0,0 C 51 % 71 % 0 % 1018,8 hPa 0,0 l/m 3,2 km/h (1 Bft) 0 min 0 min 5,5 km/h (1 Bft)
08.02.2011 01:32 14,8 C 9,1 C 0,0 UV-I 0,0 C 51 % 71 % 0 % 1018,8 hPa 0,0 l/m 2,8 km/h (1 Bft) 0 min 0 min 0,0 km/h (0 Bft)
08.02.2011 01:34 14,8 C 8,9 C 0,0 UV-I 0,0 C 51 % 72 % 0 % 1018,8 hPa 0,0 l/m 2,4 km/h (1 Bft) 0 min 0 min 4,2 km/h (1 Bft)
08.02.2011 01:36 14,8 C 8,9 C 0,0 UV-I 0,0 C 51 % 72 % 0 % 1018,8 hPa 0,0 l/m 2,0 km/h (1 Bft) 0 min 0 min 0,0 km/h (0 Bft)
08.02.2011 01:38 14,8 C 8,8 C 0,0 UV-I 0,0 C 51 % 72 % 0 % 1018,8 hPa 0,0 l/m 2,8 km/h (1 Bft) 0 min 0 min 5,1 km/h (1 Bft)
08.02.2011 01:40 14,8 C 8,8 C 0,0 UV-I 0,0 C 51 % 72 % 0 % 1018,8 hPa 0,0 l/m 2,4 km/h (1 Bft) 0 min 0 min 3,2 km/h (1 Bft)
08.02.2011 01:42 14,8 C 8,9 C 0,0 UV-I 0,0 C 51 % 72 % 0 % 1018,8 hPa 0,0 l/m 2,8 km/h (1 Bft) 0 min 0 min 0,0 km/h (0 Bft)
08.02.2011 01:44 14,8 C 8,8 C 0,0 UV-I 0,0 C 51 % 72 % 0 % 1018,8 hPa 0,0 l/m 2,8 km/h (1 Bft) 0 min 0 min 3,9 km/h (1 Bft)
08.02.2011 01:46 14,8 C 8,8 C 0,0 UV-I 0,0 C 51 % 72 % 0 % 1018,3 hPa 0,0 l/m 2,8 km/h (1 Bft) 0 min 0 min 0,0 km/h (0 Bft)
08.02.2011 01:48 14,8 C 8,8 C 0,0 UV-I 0,0 C 51 % 72 % 0 % 1018,3 hPa 0,0 l/m 2,4 km/h (1 Bft) 0 min 0 min 0,0 km/h (0 Bft)
08.02.2011 01:50 14,6 C 8,7 C 0,0 UV-I 0,0 C 51 % 72 % 0 % 1018,3 hPa 0,0 l/m 1,6 km/h (1 Bft) 0 min 0 min 0,0 km/h (0 Bft)
08.02.2011 01:52 14,6 C 8,7 C 0,0 UV-I 0,0 C 51 % 73 % 0 % 1018,3 hPa 0,0 l/m 0,8 km/h (0 Bft) 0 min 0 min 0,0 km/h (0 Bft)
08.02.2011 01:54 14,7 C 8,7 C 0,0 UV-I 0,0 C 51 % 73 % 0 % 1018,3 hPa 0,0 l/m 0,8 km/h (0 Bft) 0 min 0 min 0,0 km/h (0 Bft)
08.02.2011 01:56 14,6 C 8,6 C 0,0 UV-I 0,0 C 51 % 73 % 0 % 1018,3 hPa 0,0 l/m 1,6 km/h (1 Bft) 0 min 0 min 7,7 km/h (2 Bft)
08.02.2011 01:58 14,7 C 8,6 C 0,0 UV-I 0,0 C 51 % 73 % 0 % 1018,3 hPa 0,0 l/m 2,0 km/h (1 Bft) 0 min 0 min 4,8 km/h (1 Bft)
08.02.2011 02:00 14,7 C 8,6 C 0,0 UV-I 0,0 C 51 % 73 % 0 % 1018,3 hPa 0,0 l/m 2,8 km/h (1 Bft) 0 min 0 min 0,0 km/h (0 Bft)
08.02.2011 02:02 14,7 C 8,7 C 0,0 UV-I 0,0 C 51 % 73 % 0 % 1018,3 hPa 0,0 l/m 3,6 km/h (1 Bft) 0 min 0 min 6,4 km/h (2 Bft)
08.02.2011 02:04 14,7 C 8,7 C 0,0 UV-I 0,0 C 51 % 73 % 0 % 1018,3 hPa 0,0 l/m 4,4 km/h (1 Bft) 0 min 0 min 4,5 km/h (1 Bft)
08.02.2011 02:06 14,7 C 8,7 C 0,0 UV-I 0,0 C 51 % 73 % 0 % 1018,5 hPa 0,0 l/m 5,6 km/h (1 Bft) 0 min 0 min 5,1 km/h (1 Bft)
08.02.2011 02:08 14,7 C 8,6 C 0,0 UV-I 0,0 C 51 % 73 % 0 % 1018,5 hPa 0,0 l/m 4,0 km/h (1 Bft) 0 min 0 min 0,0 km/h (0 Bft)
08.02.2011 02:10 14,7 C 8,6 C 0,0 UV-I 0,0 C 51 % 73 % 0 % 1018,5 hPa 0,0 l/m 3,6 km/h (1 Bft) 0 min 0 min 0,0 km/h (0 Bft)
08.02.2011 02:12 14,7 C 8,5 C 0,0 UV-I 0,0 C 51 % 73 % 0 % 1018,5 hPa 0,0 l/m 3,2 km/h (1 Bft) 0 min 0 min 0,0 km/h (0 Bft)
08.02.2011 02:14 14,6 C 8,5 C 0,0 UV-I 0,0 C 51 % 73 % 0 % 1018,5 hPa 0,0 l/m 2,4 km/h (1 Bft) 0 min 0 min 0,0 km/h (0 Bft)
08.02.2011 02:16 14,7 C 8,4 C 0,0 UV-I 0,0 C 51 % 74 % 0 % 1018,5 hPa 0,0 l/m 2,0 km/h (1 Bft) 0 min 0 min 7,4 km/h (2 Bft)
08.02.2011 02:18 14,6 C 8,4 C 0,0 UV-I 0,0 C 51 % 74 % 0 % 1018,5 hPa 0,0 l/m 1,6 km/h (1 Bft) 0 min 0 min 3,2 km/h (1 Bft)
08.02.2011 02:20 14,6 C 8,4 C 0,0 UV-I 0,0 C 51 % 74 % 0 % 1018,5 hPa 0,0 l/m 2,8 km/h (1 Bft) 0 min 0 min 3,9 km/h (1 Bft)
08.02.2011 02:22 14,6 C 8,4 C 0,0 UV-I 0,0 C 51 % 73 % 0 % 1018,5 hPa 0,0 l/m 4,0 km/h (1 Bft) 0 min 0 min 14,2 km/h (3 Bft)
08.02.2011 02:24 14,6 C 8,4 C 0,0 UV-I 0,0 C 51 % 73 % 0 % 1018,5 hPa 0,0 l/m 4,8 km/h (1 Bft) 0 min 0 min 4,5 km/h (1 Bft)
08.02.2011 02:26 14,6 C 8,3 C 0,0 UV-I 0,0 C 51 % 73 % 0 % 1018,9 hPa 0,0 l/m 5,6 km/h (1 Bft) 0 min 0 min 0,0 km/h (0 Bft)
08.02.2011 02:28 14,6 C 8,4 C 0,0 UV-I 0,0 C 51 % 73 % 0 % 1018,9 hPa 0,0 l/m 5,2 km/h (1 Bft) 0 min 0 min 3,2 km/h (1 Bft)
08.02.2011 02:30 14,6 C 8,3 C 0,0 UV-I 0,0 C 51 % 73 % 0 % 1018,9 hPa 0,0 l/m 4,8 km/h (1 Bft) 0 min 0 min 0,0 km/h (0 Bft)
08.02.2011 02:32 14,6 C 8,3 C 0,0 UV-I 0,0 C 51 % 73 % 0 % 1018,9 hPa 0,0 l/m 3,6 km/h (1 Bft) 0 min 0 min 0,0 km/h (0 Bft)
08.02.2011 02:34 14,6 C 8,3 C 0,0 UV-I 0,0 C 51 % 74 % 0 % 1018,9 hPa 0,0 l/m 2,8 km/h (1 Bft) 0 min 0 min 4,5 km/h (1 Bft)
08.02.2011 02:36 14,6 C 8,3 C 0,0 UV-I 0,0 C 51 % 74 % 0 % 1018,9 hPa 0,0 l/m 2,0 km/h (1 Bft) 0 min 0 min 3,5 km/h (1 Bft)
08.02.2011 02:38 14,6 C 8,2 C 0,0 UV-I 0,0 C 51 % 74 % 0 % 1018,9 hPa 0,0 l/m 1,6 km/h (1 Bft) 0 min 0 min 5,5 km/h (1 Bft)
08.02.2011 02:40 14,6 C 8,3 C 0,0 UV-I 0,0 C 51 % 74 % 0 % 1018,9 hPa 0,0 l/m 1,6 km/h (1 Bft) 0 min 0 min 0,0 km/h (0 Bft)
08.02.2011 02:42 14,6 C 8,3 C 0,0 UV-I 0,0 C 51 % 74 % 0 % 1018,9 hPa 0,0 l/m 1,6 km/h (1 Bft) 0 min 0 min 3,2 km/h (1 Bft)
08.02.2011 02:44 14,6 C 8,2 C 0,0 UV-I 0,0 C 51 % 74 % 0 % 1018,9 hPa 0,0 l/m 2,0 km/h (1 Bft) 0 min 0 min 0,0 km/h (0 Bft)
08.02.2011 02:46 14,6 C 8,1 C 0,0 UV-I 0,0 C 51 % 74 % 0 % 1019,0 hPa 0,0 l/m 2,0 km/h (1 Bft) 0 min 0 min 0,0 km/h (0 Bft)
08.02.2011 02:48 14,6 C 8,1 C 0,0 UV-I 0,0 C 51 % 74 % 0 % 1019,0 hPa 0,0 l/m 2,0 km/h (1 Bft) 0 min 0 min 7,1 km/h (2 Bft)
08.02.2011 02:50 14,6 C 8,1 C 0,0 UV-I 0,0 C 52 % 74 % 0 % 1019,0 hPa 0,0 l/m 2,8 km/h (1 Bft) 0 min 0 min 4,2 km/h (1 Bft)
08.02.2011 02:52 14,6 C 8,1 C 0,0 UV-I 0,0 C 51 % 75 % 0 % 1019,0 hPa 0,0 l/m 3,6 km/h (1 Bft) 0 min 0 min 13,5 km/h (3 Bft)
08.02.2011 02:54 14,6 C 8,1 C 0,0 UV-I 0,0 C 51 % 75 % 0 % 1019,0 hPa 0,0 l/m 4,0 km/h (1 Bft) 0 min 0 min 5,8 km/h (2 Bft)
08.02.2011 02:56 14,6 C 8,1 C 0,0 UV-I 0,0 C 51 % 75 % 0 % 1019,0 hPa 0,0 l/m 4,8 km/h (1 Bft) 0 min 0 min 10,3 km/h (2 Bft)
08.02.2011 02:58 14,6 C 8,0 C 0,0 UV-I 0,0 C 51 % 75 % 0 % 1019,0 hPa 0,0 l/m 5,2 km/h (1 Bft) 0 min 0 min 4,5 km/h (1 Bft)
08.02.2011 03:00 14,6 C 8,0 C 0,0 UV-I 0,0 C 51 % 75 % 0 % 1019,0 hPa 0,0 l/m 5,2 km/h (1 Bft) 0 min 0 min 3,5 km/h (1 Bft)
08.02.2011 03:02 14,6 C 8,0 C 0,0 UV-I 0,0 C 51 % 75 % 0 % 1019,0 hPa 0,0 l/m 4,8 km/h (1 Bft) 0 min 0 min 3,5 km/h (1 Bft)
08.02.2011 03:04 14,6 C 8,0 C 0,0 UV-I 0,0 C 51 % 75 % 0 % 1019,0 hPa 0,0 l/m 4,8 km/h (1 Bft) 0 min 0 min 3,5 km/h (1 Bft)
08.02.2011 03:06 14,6 C 8,1 C 0,0 UV-I 0,0 C 51 % 75 % 0 % 1018,9 hPa 0,0 l/m 3,6 km/h (1 Bft) 0 min 0 min 3,2 km/h (1 Bft)
08.02.2011 03:08 14,6 C 8,0 C 0,0 UV-I 0,0 C 51 % 75 % 0 % 1018,9 hPa 0,0 l/m 3,2 km/h (1 Bft) 0 min 0 min 0,0 km/h (0 Bft)
08.02.2011 03:10 14,6 C 8,0 C 0,0 UV-I 0,0 C 51 % 75 % 0 % 1018,9 hPa 0,0 l/m 3,2 km/h (1 Bft) 0 min 0 min 7,1 km/h (2 Bft)
08.02.2011 03:12 14,4 C 8,0 C 0,0 UV-I 0,0 C 51 % 75 % 0 % 1018,9 hPa 0,0 l/m 4,0 km/h (1 Bft) 0 min 0 min 3,2 km/h (1 Bft)
08.02.2011 03:14 14,4 C 7,9 C 0,0 UV-I 0,0 C 51 % 75 % 0 % 1018,9 hPa 0,0 l/m 4,0 km/h (1 Bft) 0 min 0 min 0,0 km/h (0 Bft)
08.02.2011 03:16 14,4 C 7,9 C 0,0 UV-I 0,0 C 51 % 75 % 0 % 1018,9 hPa 0,0 l/m 4,4 km/h (1 Bft) 0 min 0 min 4,8 km/h (1 Bft)
08.02.2011 03:18 14,4 C 7,9 C 0,0 UV-I 0,0 C 51 % 75 % 0 % 1018,9 hPa 0,0 l/m 4,4 km/h (1 Bft) 0 min 0 min 4,2 km/h (1 Bft)
08.02.2011 03:20 14,4 C 7,9 C 0,0 UV-I 0,0 C 51 % 75 % 0 % 1018,9 hPa 0,0 l/m 4,0 km/h (1 Bft) 0 min 0 min 4,8 km/h (1 Bft)
08.02.2011 03:22 14,4 C 7,9 C 0,0 UV-I 0,0 C 51 % 75 % 0 % 1018,9 hPa 0,0 l/m 3,6 km/h (1 Bft) 0 min 0 min 5,1 km/h (1 Bft)
08.02.2011 03:24 14,4 C 7,9 C 0,0 UV-I 0,0 C 51 % 75 % 0 % 1018,9 hPa 0,0 l/m 2,8 km/h (1 Bft) 0 min 0 min 0,0 km/h (0 Bft)
08.02.2011 03:26 14,4 C 7,9 C 0,0 UV-I 0,0 C 51 % 75 % 0 % 1018,9 hPa 0,0 l/m 2,4 km/h (1 Bft) 0 min 0 min 3,2 km/h (1 Bft)
08.02.2011 03:28 14,4 C 7,9 C 0,0 UV-I 0,0 C 51 % 75 % 0 % 1018,9 hPa 0,0 l/m 1,6 km/h (1 Bft) 0 min 0 min 3,5 km/h (1 Bft)
08.02.2011 03:30 14,4 C 7,8 C 0,0 UV-I 0,0 C 51 % 75 % 0 % 1018,9 hPa 0,0 l/m 1,6 km/h (1 Bft) 0 min 0 min 0,0 km/h (0 Bft)
08.02.2011 03:32 14,5 C 7,7 C 0,0 UV-I 0,0 C 51 % 75 % 0 % 1018,9 hPa 0,0 l/m 1,2 km/h (1 Bft) 0 min 0 min 0,0 km/h (0 Bft)
08.02.2011 03:34 14,4 C 7,7 C 0,0 UV-I 0,0 C 51 % 75 % 0 % 1018,9 hPa 0,0 l/m 0,8 km/h (0 Bft) 0 min 0 min 0,0 km/h (0 Bft)
08.02.2011 03:36 14,4 C 7,7 C 0,0 UV-I 0,0 C 51 % 76 % 0 % 1018,9 hPa 0,0 l/m 2,0 km/h (1 Bft) 0 min 0 min 8,7 km/h (2 Bft)
08.02.2011 03:38 14,4 C 7,6 C 0,0 UV-I 0,0 C 51 % 76 % 0 % 1018,9 hPa 0,0 l/m 2,4 km/h (1 Bft) 0 min 0 min 4,2 km/h (1 Bft)
08.02.2011 03:40 14,5 C 7,6 C 0,0 UV-I 0,0 C 51 % 76 % 0 % 1018,9 hPa 0,0 l/m 2,8 km/h (1 Bft) 0 min 0 min 7,7 km/h (2 Bft)
08.02.2011 03:42 14,5 C 7,6 C 0,0 UV-I 0,0 C 51 % 76 % 0 % 1018,9 hPa 0,0 l/m 3,2 km/h (1 Bft) 0 min 0 min 0,0 km/h (0 Bft)
08.02.2011 03:44 14,5 C 7,6 C 0,0 UV-I 0,0 C 51 % 76 % 0 % 1018,9 hPa 0,0 l/m 3,2 km/h (1 Bft) 0 min 0 min 3,5 km/h (1 Bft)
08.02.2011 03:46 14,3 C 7,7 C 0,0 UV-I 0,0 C 51 % 76 % 0 % 1019,1 hPa 0,0 l/m 2,8 km/h (1 Bft) 0 min 0 min 4,8 km/h (1 Bft)
08.02.2011 03:48 14,5 C 7,7 C 0,0 UV-I 0,0 C 51 % 76 % 0 % 1019,1 hPa 0,0 l/m 2,4 km/h (1 Bft) 0 min 0 min 0,0 km/h (0 Bft)
08.02.2011 03:50 14,3 C 7,6 C 0,0 UV-I 0,0 C 51 % 76 % 0 % 1019,1 hPa 0,0 l/m 2,4 km/h (1 Bft) 0 min 0 min 8,4 km/h (2 Bft)
08.02.2011 03:52 14,3 C 7,6 C 0,0 UV-I 0,0 C 52 % 76 % 0 % 1019,1 hPa 0,0 l/m 2,0 km/h (1 Bft) 0 min 0 min 0,0 km/h (0 Bft)
08.02.2011 03:54 14,3 C 7,5 C 0,0 UV-I 0,0 C 51 % 76 % 0 % 1019,1 hPa 0,0 l/m 2,4 km/h (1 Bft) 0 min 0 min 3,2 km/h (1 Bft)
08.02.2011 03:56 14,3 C 7,5 C 0,0 UV-I 0,0 C 52 % 76 % 0 % 1019,1 hPa 0,0 l/m 2,4 km/h (1 Bft) 0 min 0 min 0,0 km/h (0 Bft)
08.02.2011 03:58 14,3 C 7,5 C 0,0 UV-I 0,0 C 52 % 76 % 0 % 1019,1 hPa 0,0 l/m 2,0 km/h (1 Bft) 0 min 0 min 0,0 km/h (0 Bft)
08.02.2011 04:00 14,3 C 7,5 C 0,0 UV-I 0,0 C 52 % 76 % 0 % 1019,1 hPa 0,0 l/m 2,0 km/h (1 Bft) 0 min 0 min 0,0 km/h (0 Bft)
08.02.2011 04:02 14,3 C 7,5 C 0,0 UV-I 0,0 C 52 % 76 % 0 % 1019,1 hPa 0,0 l/m 1,2 km/h (1 Bft) 0 min 0 min 3,2 km/h (1 Bft)
08.02.2011 04:04 14,3 C 7,5 C 0,0 UV-I 0,0 C 52 % 76 % 0 % 1019,1 hPa 0,0 l/m 1,2 km/h (1 Bft) 0 min 0 min 0,0 km/h (0 Bft)
08.02.2011 04:06 14,4 C 7,4 C 0,0 UV-I 0,0 C 52 % 76 % 0 % 1019,1 hPa 0,0 l/m 0,8 km/h (0 Bft) 0 min 0 min 0,0 km/h (0 Bft)
08.02.2011 04:08 14,4 C 7,3 C 0,0 UV-I 0,0 C 52 % 76 % 0 % 1019,1 hPa 0,0 l/m 0,8 km/h (0 Bft) 0 min 0 min 0,0 km/h (0 Bft)
08.02.2011 04:10 14,3 C 7,3 C 0,0 UV-I 0,0 C 52 % 77 % 0 % 1019,1 hPa 0,0 l/m 1,2 km/h (1 Bft) 0 min 0 min 0,0 km/h (0 Bft)
08.02.2011 04:12 14,3 C 7,3 C 0,0 UV-I 0,0 C 52 % 77 % 0 % 1019,1 hPa 0,0 l/m 2,0 km/h (1 Bft) 0 min 0 min 3,9 km/h (1 Bft)
08.02.2011 04:14 14,3 C 7,3 C 0,0 UV-I 0,0 C 52 % 77 % 0 % 1019,1 hPa 0,0 l/m 2,0 km/h (1 Bft) 0 min 0 min 0,0 km/h (0 Bft)
08.02.2011 04:16 14,3 C 7,2 C 0,0 UV-I 0,0 C 52 % 77 % 0 % 1019,1 hPa 0,0 l/m 2,0 km/h (1 Bft) 0 min 0 min 3,9 km/h (1 Bft)
08.02.2011 04:18 14,4 C 7,2 C 0,0 UV-I 0,0 C 52 % 77 % 0 % 1019,1 hPa 0,0 l/m 1,6 km/h (1 Bft) 0 min 0 min 0,0 km/h (0 Bft)
08.02.2011 04:20 14,4 C 7,2 C 0,0 UV-I 0,0 C 52 % 77 % 0 % 1019,1 hPa 0,0 l/m 1,6 km/h (1 Bft) 0 min 0 min 0,0 km/h (0 Bft)
08.02.2011 04:22 14,4 C 7,3 C 0,0 UV-I 0,0 C 52 % 77 % 0 % 1019,1 hPa 0,0 l/m 1,2 km/h (1 Bft) 0 min 0 min 4,8 km/h (1 Bft)
08.02.2011 04:24 14,4 C 7,2 C 0,0 UV-I 0,0 C 52 % 78 % 0 % 1019,1 hPa 0,0 l/m 0,8 km/h (0 Bft) 0 min 0 min 3,5 km/h (1 Bft)
08.02.2011 04:26 14,4 C 7,2 C 0,0 UV-I 0,0 C 52 % 78 % 0 % 1019,3 hPa 0,0 l/m 0,8 km/h (0 Bft) 0 min 0 min 5,8 km/h (2 Bft)
08.02.2011 04:28 14,4 C 7,1 C 0,0 UV-I 0,0 C 52 % 78 % 0 % 1019,3 hPa 0,0 l/m 1,2 km/h (1 Bft) 0 min 0 min 0,0 km/h (0 Bft)
08.02.2011 04:30 14,4 C 7,1 C 0,0 UV-I 0,0 C 52 % 78 % 0 % 1019,3 hPa 0,0 l/m 1,2 km/h (1 Bft) 0 min 0 min 0,0 km/h (0 Bft)
08.02.2011 04:32 14,4 C 7,1 C 0,0 UV-I 0,0 C 52 % 78 % 0 % 1019,3 hPa 0,0 l/m 1,6 km/h (1 Bft) 0 min 0 min 4,8 km/h (1 Bft)
08.02.2011 04:34 14,4 C 7,1 C 0,0 UV-I 0,0 C 52 % 78 % 0 % 1019,3 hPa 0,0 l/m 1,2 km/h (1 Bft) 0 min 0 min 0,0 km/h (0 Bft)
08.02.2011 04:36 14,4 C 7,1 C 0,0 UV-I 0,0 C 52 % 78 % 0 % 1019,3 hPa 0,0 l/m 1,2 km/h (1 Bft) 0 min 0 min 0,0 km/h (0 Bft)
08.02.2011 04:38 14,4 C 7,1 C 0,0 UV-I 0,0 C 52 % 78 % 0 % 1019,3 hPa 0,0 l/m 0,4 km/h (0 Bft) 0 min 0 min 0,0 km/h (0 Bft)
08.02.2011 04:40 14,4 C 7,1 C 0,0 UV-I 0,0 C 52 % 78 % 0 % 1019,3 hPa 0,0 l/m 0,4 km/h (0 Bft) 0 min 0 min 0,0 km/h (0 Bft)
08.02.2011 04:42 14,4 C 7,1 C 0,0 UV-I 0,0 C 52 % 78 % 0 % 1019,3 hPa 0,0 l/m 0,4 km/h (0 Bft) 0 min 0 min 0,0 km/h (0 Bft)
08.02.2011 04:44 14,4 C 7,1 C 0,0 UV-I 0,0 C 52 % 78 % 0 % 1019,3 hPa 0,0 l/m 0,4 km/h (0 Bft) 0 min 0 min 4,2 km/h (1 Bft)
08.02.2011 04:46 14,4 C 6,9 C 0,0 UV-I 0,0 C 52 % 78 % 0 % 1019,6 hPa 0,0 l/m 0,4 km/h (0 Bft) 0 min 0 min 0,0 km/h (0 Bft)
08.02.2011 04:48 14,4 C 6,9 C 0,0 UV-I 0,0 C 52 % 78 % 0 % 1019,6 hPa 0,0 l/m 0,4 km/h (0 Bft) 0 min 0 min 0,0 km/h (0 Bft)
08.02.2011 04:50 14,4 C 6,9 C 0,0 UV-I 0,0 C 52 % 79 % 0 % 1019,6 hPa 0,0 l/m 0,8 km/h (0 Bft) 0 min 0 min 4,5 km/h (1 Bft)
08.02.2011 04:52 14,2 C 6,9 C 0,0 UV-I 0,0 C 52 % 79 % 0 % 1019,6 hPa 0,0 l/m 1,2 km/h (1 Bft) 0 min 0 min 0,0 km/h (0 Bft)
08.02.2011 04:54 14,2 C 6,9 C 0,0 UV-I 0,0 C 52 % 79 % 0 % 1019,6 hPa 0,0 l/m 1,2 km/h (1 Bft) 0 min 0 min 5,1 km/h (1 Bft)
08.02.2011 04:56 14,4 C 6,9 C 0,0 UV-I 0,0 C 52 % 79 % 0 % 1019,6 hPa 0,0 l/m 1,6 km/h (1 Bft) 0 min 0 min 6,8 km/h (2 Bft)
08.02.2011 04:58 14,2 C 6,9 C 0,0 UV-I 0,0 C 52 % 79 % 0 % 1019,6 hPa 0,0 l/m 1,6 km/h (1 Bft) 0 min 0 min 0,0 km/h (0 Bft)
08.02.2011 05:00 14,4 C 6,8 C 0,0 UV-I 0,0 C 52 % 79 % 0 % 1019,6 hPa 0,0 l/m 2,0 km/h (1 Bft) 0 min 0 min 0,0 km/h (0 Bft)
08.02.2011 05:02 14,2 C 6,8 C 0,0 UV-I 0,0 C 52 % 79 % 0 % 1019,6 hPa 0,0 l/m 1,6 km/h (1 Bft) 0 min 0 min 0,0 km/h (0 Bft)
08.02.2011 05:04 14,2 C 6,8 C 0,0 UV-I 0,0 C 52 % 79 % 0 % 1019,6 hPa 0,0 l/m 1,6 km/h (1 Bft) 0 min 0 min 7,4 km/h (2 Bft)
08.02.2011 05:06 14,2 C 6,9 C 0,0 UV-I 0,0 C 52 % 79 % 0 % 1019,9 hPa 0,0 l/m 2,4 km/h (1 Bft) 0 min 0 min 0,0 km/h (0 Bft)
08.02.2011 05:08 14,3 C 6,8 C 0,0 UV-I 0,0 C 52 % 79 % 0 % 1019,9 hPa 0,0 l/m 2,8 km/h (1 Bft) 0 min 0 min 6,4 km/h (2 Bft)
08.02.2011 05:10 14,2 C 6,8 C 0,0 UV-I 0,0 C 52 % 79 % 0 % 1019,9 hPa 0,0 l/m 2,8 km/h (1 Bft) 0 min 0 min 0,0 km/h (0 Bft)
08.02.2011 05:12 14,3 C 6,8 C 0,0 UV-I 0,0 C 52 % 79 % 0 % 1019,9 hPa 0,0 l/m 3,6 km/h (1 Bft) 0 min 0 min 5,8 km/h (2 Bft)
08.02.2011 05:14 14,2 C 6,9 C 0,0 UV-I 0,0 C 52 % 79 % 0 % 1019,9 hPa 0,0 l/m 4,0 km/h (1 Bft) 0 min 0 min 3,5 km/h (1 Bft)
08.02.2011 05:16 14,3 C 6,9 C 0,0 UV-I 0,0 C 52 % 79 % 0 % 1019,9 hPa 0,0 l/m 4,0 km/h (1 Bft) 0 min 0 min 4,5 km/h (1 Bft)
08.02.2011 05:18 14,3 C 6,8 C 0,0 UV-I 0,0 C 52 % 79 % 0 % 1019,9 hPa 0,0 l/m 4,8 km/h (1 Bft) 0 min 0 min 5,8 km/h (2 Bft)
08.02.2011 05:20 14,3 C 6,9 C 0,0 UV-I 0,0 C 52 % 79 % 0 % 1019,9 hPa 0,0 l/m 4,4 km/h (1 Bft) 0 min 0 min 0,0 km/h (0 Bft)
08.02.2011 05:22 14,3 C 6,8 C 0,0 UV-I 0,0 C 52 % 79 % 0 % 1019,9 hPa 0,0 l/m 3,6 km/h (1 Bft) 0 min 0 min 3,2 km/h (1 Bft)
08.02.2011 05:24 14,3 C 6,8 C 0,0 UV-I 0,0 C 52 % 79 % 0 % 1019,9 hPa 0,0 l/m 3,2 km/h (1 Bft) 0 min 0 min 3,9 km/h (1 Bft)
08.02.2011 05:26 14,3 C 6,8 C 0,0 UV-I 0,0 C 52 % 79 % 0 % 1020,1 hPa 0,0 l/m 3,6 km/h (1 Bft) 0 min 0 min 6,4 km/h (2 Bft)
08.02.2011 05:28 14,3 C 6,7 C 0,0 UV-I 0,0 C 52 % 79 % 0 % 1020,1 hPa 0,0 l/m 3,2 km/h (1 Bft) 0 min 0 min 0,0 km/h (0 Bft)
08.02.2011 05:30 14,1 C 6,7 C 0,0 UV-I 0,0 C 52 % 79 % 0 % 1020,1 hPa 0,0 l/m 2,4 km/h (1 Bft) 0 min 0 min 3,5 km/h (1 Bft)
08.02.2011 05:32 14,1 C 6,7 C 0,0 UV-I 0,0 C 52 % 79 % 0 % 1020,1 hPa 0,0 l/m 2,8 km/h (1 Bft) 0 min 0 min 5,5 km/h (1 Bft)
08.02.2011 05:34 14,1 C 6,7 C 0,0 UV-I 0,0 C 52 % 79 % 0 % 1020,1 hPa 0,0 l/m 3,6 km/h (1 Bft) 0 min 0 min 5,5 km/h (1 Bft)
08.02.2011 05:36 14,1 C 6,7 C 0,0 UV-I 0,0 C 52 % 79 % 0 % 1020,1 hPa 0,0 l/m 3,2 km/h (1 Bft) 0 min 0 min 5,8 km/h (2 Bft)
08.02.2011 05:38 14,1 C 6,7 C 0,0 UV-I 0,0 C 52 % 79 % 0 % 1020,1 hPa 0,0 l/m 2,4 km/h (1 Bft) 0 min 0 min 0,0 km/h (0 Bft)
08.02.2011 05:40 14,1 C 6,7 C 0,0 UV-I 0,0 C 52 % 79 % 0 % 1020,1 hPa 0,0 l/m 2,4 km/h (1 Bft) 0 min 0 min 4,2 km/h (1 Bft)
08.02.2011 05:42 14,1 C 6,6 C 0,0 UV-I 0,0 C 52 % 79 % 0 % 1020,1 hPa 0,0 l/m 2,8 km/h (1 Bft) 0 min 0 min 3,5 km/h (1 Bft)
08.02.2011 05:44 14,1 C 6,5 C 0,0 UV-I 0,0 C 52 % 79 % 0 % 1020,1 hPa 0,0 l/m 2,8 km/h (1 Bft) 0 min 0 min 3,5 km/h (1 Bft)
08.02.2011 05:46 14,1 C 6,4 C 0,0 UV-I 0,0 C 52 % 79 % 0 % 1020,3 hPa 0,0 l/m 2,8 km/h (1 Bft) 0 min 0 min 10,0 km/h (2 Bft)
08.02.2011 05:48 14,2 C 6,4 C 0,0 UV-I 0,0 C 52 % 80 % 0 % 1020,3 hPa 0,0 l/m 3,6 km/h (1 Bft) 0 min 0 min 7,1 km/h (2 Bft)
08.02.2011 05:50 14,2 C 6,4 C 0,0 UV-I 0,0 C 52 % 80 % 0 % 1020,3 hPa 0,0 l/m 4,0 km/h (1 Bft) 0 min 0 min 9,0 km/h (2 Bft)
08.02.2011 05:52 14,2 C 6,4 C 0,0 UV-I 0,0 C 52 % 80 % 0 % 1020,3 hPa 0,0 l/m 4,4 km/h (1 Bft) 0 min 0 min 3,5 km/h (1 Bft)
08.02.2011 05:54 14,2 C 6,4 C 0,0 UV-I 0,0 C 52 % 79 % 0 % 1020,3 hPa 0,0 l/m 4,0 km/h (1 Bft) 0 min 0 min 0,0 km/h (0 Bft)
08.02.2011 05:56 14,2 C 6,4 C 0,0 UV-I 0,0 C 52 % 79 % 0 % 1020,3 hPa 0,0 l/m 3,6 km/h (1 Bft) 0 min 0 min 0,0 km/h (0 Bft)
08.02.2011 05:58 14,2 C 6,5 C 0,0 UV-I 0,0 C 52 % 80 % 0 % 1020,3 hPa 0,0 l/m 2,8 km/h (1 Bft) 0 min 0 min 0,0 km/h (0 Bft)
08.02.2011 06:00 14,2 C 6,4 C 0,0 UV-I 0,0 C 52 % 79 % 0 % 1020,3 hPa 0,0 l/m 2,0 km/h (1 Bft) 0 min 0 min 0,0 km/h (0 Bft)
08.02.2011 06:02 14,2 C 6,3 C 0,0 UV-I 0,0 C 52 % 80 % 0 % 1020,3 hPa 0,0 l/m 1,6 km/h (1 Bft) 0 min 0 min 0,0 km/h (0 Bft)
08.02.2011 06:04 14,2 C 6,3 C 0,0 UV-I 0,0 C 52 % 80 % 0 % 1020,3 hPa 0,0 l/m 1,6 km/h (1 Bft) 0 min 0 min 0,0 km/h (0 Bft)
08.02.2011 06:06 14,2 C 6,3 C 0,0 UV-I 0,0 C 52 % 80 % 0 % 1020,4 hPa 0,0 l/m 2,0 km/h (1 Bft) 0 min 0 min 8,0 km/h (2 Bft)
08.02.2011 06:08 14,2 C 6,2 C 0,0 UV-I 0,0 C 52 % 80 % 0 % 1020,4 hPa 0,0 l/m 2,4 km/h (1 Bft) 0 min 0 min 0,0 km/h (0 Bft)
08.02.2011 06:10 14,2 C 6,3 C 0,0 UV-I 0,0 C 52 % 80 % 0 % 1020,4 hPa 0,0 l/m 2,4 km/h (1 Bft) 0 min 0 min 0,0 km/h (0 Bft)
08.02.2011 06:12 14,1 C 6,3 C 0,0 UV-I 0,0 C 52 % 80 % 0 % 1020,4 hPa 0,0 l/m 2,4 km/h (1 Bft) 0 min 0 min 5,5 km/h (1 Bft)
08.02.2011 06:14 14,1 C 6,2 C 0,0 UV-I 0,0 C 52 % 80 % 0 % 1020,4 hPa 0,0 l/m 2,8 km/h (1 Bft) 0 min 0 min 0,0 km/h (0 Bft)
08.02.2011 06:16 14,1 C 6,1 C 0,0 UV-I 0,0 C 52 % 80 % 0 % 1020,4 hPa 0,0 l/m 2,4 km/h (1 Bft) 0 min 0 min 4,5 km/h (1 Bft)
08.02.2011 06:18 14,1 C 6,1 C 0,0 UV-I 0,0 C 52 % 80 % 0 % 1020,4 hPa 0,0 l/m 2,4 km/h (1 Bft) 0 min 0 min 8,0 km/h (2 Bft)
08.02.2011 06:20 14,1 C 6,1 C 0,0 UV-I 0,0 C 52 % 80 % 0 % 1020,4 hPa 0,0 l/m 3,2 km/h (1 Bft) 0 min 0 min 4,2 km/h (1 Bft)
08.02.2011 06:22 14,1 C 6,1 C 0,0 UV-I 0,0 C 52 % 80 % 0 % 1020,4 hPa 0,0 l/m 2,8 km/h (1 Bft) 0 min 0 min 0,0 km/h (0 Bft)
08.02.2011 06:24 14,1 C 6,1 C 0,0 UV-I 0,0 C 52 % 80 % 0 % 1020,4 hPa 0,0 l/m 2,4 km/h (1 Bft) 0 min 0 min 0,0 km/h (0 Bft)
08.02.2011 06:26 14,1 C 6,1 C 0,0 UV-I 0,0 C 52 % 80 % 0 % 1020,9 hPa 0,0 l/m 2,0 km/h (1 Bft) 0 min 0 min 0,0 km/h (0 Bft)
08.02.2011 06:28 14,1 C 6,0 C 0,0 UV-I 0,0 C 52 % 80 % 0 % 1020,9 hPa 0,0 l/m 2,4 km/h (1 Bft) 0 min 0 min 0,0 km/h (0 Bft)
08.02.2011 06:30 14,1 C 6,0 C 0,0 UV-I 0,0 C 52 % 80 % 0 % 1020,9 hPa 0,0 l/m 0,8 km/h (0 Bft) 0 min 0 min 0,0 km/h (0 Bft)
08.02.2011 06:32 14,1 C 6,0 C 0,0 UV-I 0,0 C 52 % 80 % 0 % 1020,9 hPa 0,0 l/m 0,8 km/h (0 Bft) 0 min 0 min 0,0 km/h (0 Bft)
08.02.2011 06:34 14,1 C 5,9 C 0,0 UV-I 0,0 C 52 % 80 % 0 % 1020,9 hPa 0,0 l/m 0,8 km/h (0 Bft) 0 min 0 min 3,5 km/h (1 Bft)
08.02.2011 06:36 14,1 C 5,9 C 0,0 UV-I 0,0 C 52 % 80 % 0 % 1020,9 hPa 0,0 l/m 1,2 km/h (1 Bft) 0 min 0 min 4,2 km/h (1 Bft)
08.02.2011 06:38 14,1 C 5,9 C 0,0 UV-I 0,0 C 52 % 80 % 0 % 1020,9 hPa 0,0 l/m 1,2 km/h (1 Bft) 0 min 0 min 3,5 km/h (1 Bft)
08.02.2011 06:40 14,1 C 5,8 C 0,0 UV-I 0,0 C 52 % 81 % 0 % 1020,9 hPa 0,0 l/m 1,6 km/h (1 Bft) 0 min 0 min 0,0 km/h (0 Bft)
08.02.2011 06:42 13,9 C 5,9 C 0,0 UV-I 0,0 C 52 % 81 % 0 % 1020,9 hPa 0,0 l/m 2,0 km/h (1 Bft) 0 min 0 min 3,2 km/h (1 Bft)
08.02.2011 06:44 13,9 C 5,9 C 0,0 UV-I 0,0 C 52 % 81 % 0 % 1020,9 hPa 0,0 l/m 1,6 km/h (1 Bft) 0 min 0 min 0,0 km/h (0 Bft)
08.02.2011 06:46 13,9 C 5,8 C 0,0 UV-I 0,0 C 52 % 81 % 0 % 1021,4 hPa 0,0 l/m 2,0 km/h (1 Bft) 0 min 0 min 5,5 km/h (1 Bft)
08.02.2011 06:48 13,9 C 5,7 C 0,0 UV-I 0,0 C 52 % 81 % 0 % 1021,4 hPa 0,0 l/m 1,6 km/h (1 Bft) 0 min 0 min 0,0 km/h (0 Bft)
08.02.2011 06:50 13,9 C 5,7 C 0,0 UV-I 0,0 C 52 % 81 % 0 % 1021,4 hPa 0,0 l/m 1,6 km/h (1 Bft) 0 min 0 min 0,0 km/h (0 Bft)
08.02.2011 06:52 13,9 C 5,6 C 0,0 UV-I 0,0 C 52 % 81 % 0 % 1021,4 hPa 0,0 l/m 1,2 km/h (1 Bft) 0 min 0 min 0,0 km/h (0 Bft)
08.02.2011 06:54 13,9 C 5,6 C 0,0 UV-I 0,0 C 52 % 81 % 0 % 1021,4 hPa 0,0 l/m 1,2 km/h (1 Bft) 0 min 0 min 0,0 km/h (0 Bft)
08.02.2011 06:56 13,9 C 5,6 C 0,0 UV-I 0,0 C 52 % 81 % 0 % 1021,4 hPa 0,0 l/m 0,8 km/h (0 Bft) 0 min 0 min 0,0 km/h (0 Bft)
08.02.2011 06:58 13,9 C 5,5 C 0,0 UV-I 0,0 C 52 % 81 % 0 % 1021,4 hPa 0,0 l/m 0,4 km/h (0 Bft) 0 min 0 min 0,0 km/h (0 Bft)
08.02.2011 07:00 14,0 C 5,5 C 0,0 UV-I 0,0 C 52 % 81 % 0 % 1021,4 hPa 0,0 l/m 0,4 km/h (0 Bft) 0 min 0 min 3,2 km/h (1 Bft)
08.02.2011 07:02 14,0 C 5,4 C 0,0 UV-I 0,0 C 52 % 81 % 0 % 1021,4 hPa 0,0 l/m 0,4 km/h (0 Bft) 0 min 0 min 0,0 km/h (0 Bft)
08.02.2011 07:04 14,0 C 5,5 C 0,0 UV-I 0,0 C 52 % 81 % 0 % 1021,4 hPa 0,0 l/m 0,4 km/h (0 Bft) 0 min 0 min 0,0 km/h (0 Bft)
08.02.2011 07:06 14,0 C 5,4 C 0,0 UV-I 0,0 C 52 % 81 % 0 % 1021,2 hPa 0,0 l/m 0,8 km/h (0 Bft) 0 min 0 min 8,7 km/h (2 Bft)
08.02.2011 07:08 14,0 C 5,4 C 0,0 UV-I 0,0 C 52 % 81 % 0 % 1021,2 hPa 0,0 l/m 1,6 km/h (1 Bft) 0 min 0 min 3,5 km/h (1 Bft)
08.02.2011 07:10 14,0 C 5,3 C 0,0 UV-I 0,0 C 52 % 81 % 0 % 1021,2 hPa 0,0 l/m 1,6 km/h (1 Bft) 0 min 0 min 4,2 km/h (1 Bft)
08.02.2011 07:12 14,0 C 5,3 C 0,0 UV-I 0,0 C 52 % 81 % 0 % 1021,2 hPa 0,0 l/m 1,6 km/h (1 Bft) 0 min 0 min 0,0 km/h (0 Bft)
08.02.2011 07:14 14,0 C 5,3 C 0,0 UV-I 0,0 C 52 % 81 % 0 % 1021,2 hPa 0,0 l/m 1,6 km/h (1 Bft) 0 min 0 min 4,5 km/h (1 Bft)
08.02.2011 07:16 14,0 C 5,2 C 0,0 UV-I 0,0 C 52 % 82 % 0 % 1021,2 hPa 0,0 l/m 2,0 km/h (1 Bft) 0 min 0 min 4,2 km/h (1 Bft)
08.02.2011 07:18 13,8 C 5,2 C 0,0 UV-I 0,0 C 52 % 81 % 0 % 1021,2 hPa 0,0 l/m 1,2 km/h (1 Bft) 0 min 0 min 0,0 km/h (0 Bft)
08.02.2011 07:20 14,0 C 5,2 C 0,0 UV-I 0,0 C 52 % 81 % 0 % 1021,2 hPa 0,0 l/m 0,8 km/h (0 Bft) 0 min 0 min 0,0 km/h (0 Bft)
08.02.2011 07:22 13,8 C 5,1 C 0,0 UV-I 0,0 C 52 % 81 % 0 % 1021,2 hPa 0,0 l/m 0,4 km/h (0 Bft) 0 min 0 min 0,0 km/h (0 Bft)
08.02.2011 07:24 13,8 C 5,1 C 0,0 UV-I 0,0 C 52 % 82 % 0 % 1021,2 hPa 0,0 l/m 0,4 km/h (0 Bft) 0 min 0 min 0,0 km/h (0 Bft)
08.02.2011 07:26 13,8 C 5,1 C 0,0 UV-I 0,0 C 52 % 82 % 0 % 1021,5 hPa 0,0 l/m 0,4 km/h (0 Bft) 0 min 0 min 3,2 km/h (1 Bft)
08.02.2011 07:28 14,0 C 5,0 C 0,0 UV-I 0,0 C 52 % 82 % 0 % 1021,5 hPa 0,0 l/m 0,0 km/h (0 Bft) 0 min 0 min 0,0 km/h (0 Bft)
08.02.2011 07:30 13,9 C 4,9 C 0,0 UV-I 0,0 C 52 % 82 % 0 % 1021,5 hPa 0,0 l/m 0,0 km/h (0 Bft) 0 min 0 min 0,0 km/h (0 Bft)
08.02.2011 07:32 13,9 C 4,9 C 0,0 UV-I 0,0 C 52 % 82 % 0 % 1021,5 hPa 0,0 l/m 0,0 km/h (0 Bft) 0 min 0 min 0,0 km/h (0 Bft)
08.02.2011 07:34 13,9 C 4,8 C 0,0 UV-I 0,0 C 52 % 82 % 0 % 1021,5 hPa 0,0 l/m 0,0 km/h (0 Bft) 0 min 0 min 0,0 km/h (0 Bft)
08.02.2011 07:36 13,9 C 4,8 C 0,0 UV-I 0,0 C 52 % 82 % 0 % 1021,5 hPa 0,0 l/m 0,0 km/h (0 Bft) 0 min 0 min 0,0 km/h (0 Bft)
08.02.2011 07:38 13,9 C 4,8 C 0,0 UV-I 0,0 C 52 % 82 % 0 % 1021,5 hPa 0,0 l/m 0,0 km/h (0 Bft) 0 min 0 min 0,0 km/h (0 Bft)
08.02.2011 07:40 13,9 C 4,7 C 0,0 UV-I 0,0 C 52 % 82 % 0 % 1021,5 hPa 0,0 l/m 0,0 km/h (0 Bft) 0 min 0 min 0,0 km/h (0 Bft)
08.02.2011 07:42 13,9 C 4,7 C 0,0 UV-I 0,0 C 52 % 82 % 0 % 1021,5 hPa 0,0 l/m 0,0 km/h (0 Bft) 0 min 0 min 0,0 km/h (0 Bft)
08.02.2011 07:44 13,9 C 4,7 C 0,0 UV-I 0,0 C 52 % 82 % 0 % 1021,5 hPa 0,0 l/m 0,0 km/h (0 Bft) 0 min 0 min 0,0 km/h (0 Bft)
08.02.2011 07:46 13,9 C 4,7 C 0,0 UV-I 0,0 C 52 % 82 % 0 % 1021,9 hPa 0,0 l/m 0,0 km/h (0 Bft) 0 min 0 min 0,0 km/h (0 Bft)
08.02.2011 07:48 13,8 C 4,7 C 0,0 UV-I 0,0 C 52 % 82 % 0 % 1021,9 hPa 0,0 l/m 0,0 km/h (0 Bft) 0 min 0 min 0,0 km/h (0 Bft)
08.02.2011 07:50 13,8 C 4,5 C 0,0 UV-I 0,0 C 52 % 82 % 0 % 1021,9 hPa 0,0 l/m 0,0 km/h (0 Bft) 0 min 0 min 0,0 km/h (0 Bft)
08.02.2011 07:52 13,8 C 4,5 C 0,0 UV-I 0,0 C 52 % 82 % 0 % 1021,9 hPa 0,0 l/m 0,0 km/h (0 Bft) 0 min 0 min 0,0 km/h (0 Bft)
08.02.2011 07:54 13,8 C 4,4 C 0,0 UV-I 0,0 C 52 % 83 % 0 % 1021,9 hPa 0,0 l/m 0,0 km/h (0 Bft) 0 min 0 min 0,0 km/h (0 Bft)
08.02.2011 07:56 13,8 C 4,4 C 0,0 UV-I 0,0 C 52 % 83 % 0 % 1021,9 hPa 0,0 l/m 0,0 km/h (0 Bft) 0 min 0 min 0,0 km/h (0 Bft)
08.02.2011 07:58 13,8 C 4,4 C 0,0 UV-I 0,0 C 52 % 83 % 0 % 1021,9 hPa 0,0 l/m 0,0 km/h (0 Bft) 0 min 0 min 0,0 km/h (0 Bft)
08.02.2011 08:00 13,8 C 4,3 C 0,0 UV-I 0,0 C 52 % 83 % 0 % 1021,9 hPa 0,0 l/m 0,0 km/h (0 Bft) 0 min 0 min 0,0 km/h (0 Bft)
08.02.2011 08:02 13,8 C 4,2 C 0,0 UV-I 0,0 C 52 % 83 % 0 % 1021,9 hPa 0,0 l/m 0,0 km/h (0 Bft) 0 min 0 min 0,0 km/h (0 Bft)
08.02.2011 08:04 13,8 C 4,3 C 0,0 UV-I 0,0 C 52 % 83 % 0 % 1021,9 hPa 0,0 l/m 0,0 km/h (0 Bft) 0 min 0 min 0,0 km/h (0 Bft)
08.02.2011 08:06 13,8 C 4,1 C 0,0 UV-I 0,0 C 52 % 83 % 0 % 1021,8 hPa 0,0 l/m 0,0 km/h (0 Bft) 0 min 0 min 0,0 km/h (0 Bft)
08.02.2011 08:08 13,8 C 4,0 C 0,0 UV-I 0,0 C 52 % 83 % 0 % 1021,8 hPa 0,0 l/m 0,0 km/h (0 Bft) 0 min 0 min 0,0 km/h (0 Bft)
08.02.2011 08:10 13,8 C 4,0 C 0,0 UV-I 0,0 C 52 % 83 % 0 % 1021,8 hPa 0,0 l/m 0,0 km/h (0 Bft) 0 min 0 min 0,0 km/h (0 Bft)
08.02.2011 08:12 13,8 C 4,0 C 0,0 UV-I 0,0 C 52 % 83 % 0 % 1021,8 hPa 0,0 l/m 0,0 km/h (0 Bft) 0 min 0 min 0,0 km/h (0 Bft)
08.02.2011 08:14 13,8 C 4,0 C 0,0 UV-I 0,0 C 52 % 83 % 0 % 1021,8 hPa 0,0 l/m 0,0 km/h (0 Bft) 0 min 0 min 0,0 km/h (0 Bft)
08.02.2011 08:16 13,8 C 4,0 C 0,0 UV-I 0,0 C 52 % 83 % 0 % 1021,8 hPa 0,0 l/m 0,0 km/h (0 Bft) 0 min 0 min 0,0 km/h (0 Bft)
08.02.2011 08:18 13,6 C 4,0 C 0,0 UV-I 0,0 C 52 % 84 % 0 % 1021,8 hPa 0,0 l/m 0,0 km/h (0 Bft) 0 min 0 min 0,0 km/h (0 Bft)
08.02.2011 08:20 13,8 C 4,0 C 0,0 UV-I 0,0 C 52 % 84 % 0 % 1021,8 hPa 0,0 l/m 0,0 km/h (0 Bft) 0 min 0 min 0,0 km/h (0 Bft)
08.02.2011 08:22 13,8 C 4,0 C 0,0 UV-I 0,0 C 52 % 84 % 0 % 1021,8 hPa 0,0 l/m 0,0 km/h (0 Bft) 0 min 0 min 0,0 km/h (0 Bft)
08.02.2011 08:24 13,8 C 4,0 C 0,0 UV-I 0,0 C 52 % 84 % 0 % 1021,8 hPa 0,0 l/m 0,0 km/h (0 Bft) 0 min 0 min 0,0 km/h (0 Bft)
08.02.2011 08:26 13,6 C 4,0 C 0,0 UV-I 0,0 C 52 % 84 % 0 % 1022,3 hPa 0,0 l/m 0,0 km/h (0 Bft) 0 min 0 min 0,0 km/h (0 Bft)
08.02.2011 08:28 13,6 C 3,9 C 0,0 UV-I 0,0 C 52 % 84 % 0 % 1022,3 hPa 0,0 l/m 0,0 km/h (0 Bft) 0 min 0 min 0,0 km/h (0 Bft)
08.02.2011 08:30 13,6 C 3,9 C 0,0 UV-I 0,0 C 52 % 84 % 0 % 1022,3 hPa 0,0 l/m 0,0 km/h (0 Bft) 0 min 0 min 0,0 km/h (0 Bft)
08.02.2011 08:32 13,6 C 3,9 C 0,0 UV-I 0,0 C 52 % 84 % 0 % 1022,3 hPa 0,0 l/m 0,0 km/h (0 Bft) 0 min 0 min 0,0 km/h (0 Bft)
08.02.2011 08:34 13,6 C 3,9 C 0,0 UV-I 0,0 C 52 % 84 % 0 % 1022,3 hPa 0,0 l/m 0,0 km/h (0 Bft) 0 min 0 min 0,0 km/h (0 Bft)
08.02.2011 08:36 13,6 C 3,9 C 0,0 UV-I 0,0 C 52 % 85 % 0 % 1022,3 hPa 0,0 l/m 0,0 km/h (0 Bft) 0 min 0 min 0,0 km/h (0 Bft)
08.02.2011 08:38 13,6 C 4,0 C 0,0 UV-I 0,0 C 52 % 84 % 0 % 1022,3 hPa 0,0 l/m 0,0 km/h (0 Bft) 0 min 0 min 0,0 km/h (0 Bft)
08.02.2011 08:40 13,6 C 3,9 C 0,0 UV-I 0,0 C 52 % 85 % 0 % 1022,3 hPa 0,0 l/m 0,0 km/h (0 Bft) 0 min 0 min 0,0 km/h (0 Bft)
08.02.2011 08:42 13,6 C 4,0 C 0,0 UV-I 0,0 C 52 % 85 % 0 % 1022,3 hPa 0,0 l/m 0,0 km/h (0 Bft) 0 min 0 min 0,0 km/h (0 Bft)
08.02.2011 08:44 13,7 C 3,9 C 0,0 UV-I 0,0 C 52 % 85 % 0 % 1022,3 hPa 0,0 l/m 0,0 km/h (0 Bft) 0 min 0 min 0,0 km/h (0 Bft)
08.02.2011 08:46 13,6 C 3,9 C 0,0 UV-I 0,0 C 52 % 85 % 0 % 1022,4 hPa 0,0 l/m 0,0 km/h (0 Bft) 0 min 0 min 0,0 km/h (0 Bft)
08.02.2011 08:48 13,6 C 3,9 C 0,0 UV-I 0,0 C 52 % 85 % 0 % 1022,4 hPa 0,0 l/m 0,0 km/h (0 Bft) 0 min 0 min 0,0 km/h (0 Bft)
08.02.2011 08:50 13,7 C 3,9 C 0,0 UV-I 0,0 C 52 % 85 % 0 % 1022,4 hPa 0,0 l/m 0,0 km/h (0 Bft) 0 min 0 min 0,0 km/h (0 Bft)
08.02.2011 08:52 13,7 C 4,0 C 0,0 UV-I 0,0 C 52 % 85 % 0 % 1022,4 hPa 0,0 l/m 0,0 km/h (0 Bft) 0 min 0 min 0,0 km/h (0 Bft)
08.02.2011 08:54 13,7 C 3,9 C 0,0 UV-I 0,0 C 52 % 85 % 0 % 1022,4 hPa 0,0 l/m 0,0 km/h (0 Bft) 0 min 0 min 0,0 km/h (0 Bft)
08.02.2011 08:56 13,7 C 4,0 C 0,0 UV-I 0,0 C 52 % 85 % 0 % 1022,4 hPa 0,0 l/m 0,0 km/h (0 Bft) 0 min 0 min 0,0 km/h (0 Bft)
08.02.2011 08:58 13,7 C 4,0 C 0,0 UV-I 0,0 C 52 % 85 % 0 % 1022,4 hPa 0,0 l/m 0,0 km/h (0 Bft) 0 min 0 min 0,0 km/h (0 Bft)
08.02.2011 09:00 13,6 C 4,0 C 0,0 UV-I 0,0 C 52 % 85 % 0 % 1022,4 hPa 0,0 l/m 0,0 km/h (0 Bft) 0 min 0 min 0,0 km/h (0 Bft)
08.02.2011 09:02 13,7 C 4,0 C 0,0 UV-I 0,0 C 52 % 85 % 0 % 1022,4 hPa 0,0 l/m 0,0 km/h (0 Bft) 0 min 0 min 0,0 km/h (0 Bft)
08.02.2011 09:04 13,6 C 4,0 C 0,0 UV-I 0,0 C 52 % 85 % 0 % 1022,4 hPa 0,0 l/m 0,0 km/h (0 Bft) 0 min 0 min 0,0 km/h (0 Bft)
08.02.2011 09:06 13,6 C 4,0 C 0,0 UV-I 0,0 C 52 % 85 % 0 % 1023,1 hPa 0,0 l/m 0,0 km/h (0 Bft) 0 min 0 min 0,0 km/h (0 Bft)
08.02.2011 09:08 13,6 C 4,1 C 0,0 UV-I 0,0 C 52 % 85 % 0 % 1023,1 hPa 0,0 l/m 0,0 km/h (0 Bft) 0 min 0 min 0,0 km/h (0 Bft)
08.02.2011 09:10 13,6 C 4,1 C 0,0 UV-I 0,0 C 52 % 85 % 0 % 1023,1 hPa 0,0 l/m 0,0 km/h (0 Bft) 0 min 0 min 0,0 km/h (0 Bft)
08.02.2011 09:12 13,6 C 4,1 C 0,0 UV-I 0,0 C 52 % 85 % 0 % 1023,1 hPa 0,0 l/m 0,0 km/h (0 Bft) 0 min 0 min 0,0 km/h (0 Bft)
08.02.2011 09:14 13,6 C 4,3 C 0,0 UV-I 0,0 C 53 % 86 % 0 % 1023,1 hPa 0,0 l/m 0,0 km/h (0 Bft) 0 min 0 min 0,0 km/h (0 Bft)
08.02.2011 09:16 13,6 C 4,2 C 0,0 UV-I 0,0 C 52 % 86 % 0 % 1023,1 hPa 0,0 l/m 0,0 km/h (0 Bft) 0 min 0 min 0,0 km/h (0 Bft)
08.02.2011 09:18 13,6 C 4,3 C 0,0 UV-I 0,0 C 53 % 86 % 0 % 1023,1 hPa 0,0 l/m 0,0 km/h (0 Bft) 0 min 0 min 0,0 km/h (0 Bft)
08.02.2011 09:20 13,6 C 4,3 C 0,0 UV-I 0,0 C 52 % 86 % 0 % 1023,1 hPa 0,0 l/m 0,0 km/h (0 Bft) 0 min 0 min 0,0 km/h (0 Bft)
08.02.2011 09:22 13,6 C 4,4 C 0,0 UV-I 0,0 C 53 % 86 % 0 % 1023,1 hPa 0,0 l/m 0,0 km/h (0 Bft) 0 min 0 min 0,0 km/h (0 Bft)
08.02.2011 09:24 13,6 C 4,4 C 0,0 UV-I 0,0 C 53 % 86 % 0 % 1023,1 hPa 0,0 l/m 0,0 km/h (0 Bft) 0 min 0 min 0,0 km/h (0 Bft)
08.02.2011 09:26 13,6 C 4,4 C 0,0 UV-I 0,0 C 52 % 86 % 0 % 1023,1 hPa 0,0 l/m 0,0 km/h (0 Bft) 0 min 0 min 0,0 km/h (0 Bft)
08.02.2011 09:28 13,6 C 4,4 C 0,0 UV-I 0,0 C 53 % 86 % 0 % 1023,1 hPa 0,0 l/m 0,0 km/h (0 Bft) 0 min 0 min 0,0 km/h (0 Bft)
08.02.2011 09:30 13,6 C 4,5 C 0,0 UV-I 0,0 C 53 % 86 % 0 % 1023,1 hPa 0,0 l/m 0,0 km/h (0 Bft) 0 min 0 min 0,0 km/h (0 Bft)
08.02.2011 09:32 13,6 C 4,6 C 0,0 UV-I 1,0 C 53 % 86 % 29 % 1023,1 hPa 0,0 l/m 0,0 km/h (0 Bft) 0 min 0 min 0,0 km/h (0 Bft)
08.02.2011 09:34 13,6 C 4,7 C 0,0 UV-I 1,9 C 53 % 86 % 54 % 1023,1 hPa 0,0 l/m 0,4 km/h (0 Bft) 2 min 0 min 4,5 km/h (1 Bft)
08.02.2011 09:36 13,6 C 4,6 C 0,0 UV-I 3,2 C 53 % 86 % 91 % 1023,1 hPa 0,0 l/m 0,4 km/h (0 Bft) 2 min 0 min 0,0 km/h (0 Bft)
08.02.2011 09:38 13,6 C 4,7 C 0,0 UV-I 4,0 C 53 % 86 % 100 % 1023,1 hPa 0,0 l/m 0,4 km/h (0 Bft) 2 min 0 min 0,0 km/h (0 Bft)
08.02.2011 09:40 13,6 C 4,8 C 0,0 UV-I 4,5 C 53 % 86 % 100 % 1023,1 hPa 0,0 l/m 0,4 km/h (0 Bft) 2 min 0 min 3,9 km/h (1 Bft)
08.02.2011 09:42 13,6 C 4,9 C 0,0 UV-I 5,1 C 53 % 86 % 100 % 1023,1 hPa 0,0 l/m 0,4 km/h (0 Bft) 2 min 0 min 0,0 km/h (0 Bft)
08.02.2011 09:44 13,6 C 4,9 C 0,0 UV-I 5,6 C 53 % 86 % 100 % 1023,1 hPa 0,0 l/m 0,8 km/h (0 Bft) 2 min 0 min 6,1 km/h (2 Bft)
08.02.2011 09:46 13,6 C 5,1 C 0,0 UV-I 5,9 C 53 % 86 % 100 % 1023,1 hPa 0,0 l/m 0,8 km/h (0 Bft) 2 min 0 min 6,8 km/h (2 Bft)
08.02.2011 09:48 13,6 C 5,1 C 0,0 UV-I 6,2 C 53 % 86 % 100 % 1023,1 hPa 0,0 l/m 1,2 km/h (1 Bft) 2 min 0 min 8,4 km/h (2 Bft)
08.02.2011 09:50 13,6 C 5,3 C 0,0 UV-I 6,3 C 53 % 86 % 100 % 1023,1 hPa 0,0 l/m 1,6 km/h (1 Bft) 2 min 0 min 0,0 km/h (0 Bft)
08.02.2011 09:52 13,6 C 5,3 C 0,0 UV-I 6,6 C 53 % 86 % 100 % 1023,1 hPa 0,0 l/m 2,0 km/h (1 Bft) 2 min 0 min 5,5 km/h (1 Bft)
08.02.2011 09:54 13,7 C 5,5 C 0,0 UV-I 6,6 C 53 % 86 % 100 % 1023,1 hPa 0,0 l/m 2,8 km/h (1 Bft) 2 min 0 min 4,8 km/h (1 Bft)
08.02.2011 09:56 13,6 C 5,5 C 0,0 UV-I 6,7 C 53 % 86 % 100 % 1023,1 hPa 0,0 l/m 3,2 km/h (1 Bft) 2 min 0 min 8,7 km/h (2 Bft)
08.02.2011 09:58 13,6 C 5,5 C 0,0 UV-I 6,8 C 53 % 85 % 100 % 1023,1 hPa 0,0 l/m 3,2 km/h (1 Bft) 2 min 0 min 0,0 km/h (0 Bft)
08.02.2011 10:00 13,6 C 5,7 C 0,0 UV-I 6,8 C 53 % 85 % 100 % 1023,1 hPa 0,0 l/m 3,2 km/h (1 Bft) 2 min 0 min 4,8 km/h (1 Bft)
08.02.2011 10:02 13,6 C 5,6 C 0,0 UV-I 7,1 C 53 % 85 % 100 % 1023,1 hPa 0,0 l/m 2,8 km/h (1 Bft) 2 min 0 min 0,0 km/h (0 Bft)
08.02.2011 10:04 13,7 C 5,7 C 0,0 UV-I 7,2 C 53 % 85 % 100 % 1023,1 hPa 0,0 l/m 2,0 km/h (1 Bft) 2 min 0 min 0,0 km/h (0 Bft)
08.02.2011 10:06 13,6 C 5,8 C 0,0 UV-I 7,3 C 53 % 85 % 100 % 1023,1 hPa 0,0 l/m 1,6 km/h (1 Bft) 2 min 0 min 0,0 km/h (0 Bft)
08.02.2011 10:08 13,6 C 5,9 C 0,0 UV-I 7,6 C 53 % 85 % 100 % 1023,1 hPa 0,0 l/m 1,6 km/h (1 Bft) 2 min 0 min 6,4 km/h (2 Bft)
08.02.2011 10:10 13,6 C 6,0 C 0,0 UV-I 7,5 C 53 % 85 % 100 % 1023,1 hPa 0,0 l/m 1,6 km/h (1 Bft) 2 min 0 min 0,0 km/h (0 Bft)
08.02.2011 10:12 13,6 C 6,1 C 0,0 UV-I 7,5 C 53 % 85 % 100 % 1023,1 hPa 0,0 l/m 2,0 km/h (1 Bft) 2 min 0 min 8,7 km/h (2 Bft)
08.02.2011 10:14 13,7 C 6,1 C 0,0 UV-I 7,5 C 53 % 85 % 100 % 1023,1 hPa 0,0 l/m 2,8 km/h (1 Bft) 2 min 0 min 3,9 km/h (1 Bft)
08.02.2011 10:16 13,6 C 6,2 C 0,0 UV-I 7,4 C 53 % 84 % 100 % 1023,1 hPa 0,0 l/m 4,0 km/h (1 Bft) 2 min 0 min 0,0 km/h (0 Bft)
08.02.2011 10:18 13,7 C 6,3 C 0,0 UV-I 7,2 C 53 % 84 % 100 % 1023,1 hPa 0,0 l/m 5,2 km/h (1 Bft) 2 min 0 min 7,7 km/h (2 Bft)
08.02.2011 10:20 13,7 C 6,3 C 0,0 UV-I 7,2 C 53 % 83 % 100 % 1023,1 hPa 0,0 l/m 5,6 km/h (1 Bft) 2 min 0 min 10,3 km/h (2 Bft)
08.02.2011 10:22 13,7 C 6,3 C 0,0 UV-I 7,2 C 53 % 83 % 100 % 1023,1 hPa 0,0 l/m 6,4 km/h (2 Bft) 2 min 0 min 12,2 km/h (2 Bft)
08.02.2011 10:24 13,6 C 6,5 C 0,0 UV-I 6,9 C 53 % 83 % 100 % 1023,1 hPa 0,0 l/m 6,0 km/h (2 Bft) 2 min 0 min 3,5 km/h (1 Bft)
08.02.2011 10:26 13,7 C 6,4 C 0,0 UV-I 7,1 C 53 % 83 % 100 % 1023,9 hPa 0,0 l/m 5,2 km/h (1 Bft) 2 min 0 min 3,2 km/h (1 Bft)
08.02.2011 10:28 13,6 C 6,5 C 0,0 UV-I 7,3 C 53 % 83 % 100 % 1023,9 hPa 0,0 l/m 5,2 km/h (1 Bft) 2 min 0 min 4,5 km/h (1 Bft)
08.02.2011 10:30 13,7 C 6,6 C 0,0 UV-I 7,4 C 53 % 82 % 100 % 1023,9 hPa 0,0 l/m 4,4 km/h (1 Bft) 2 min 0 min 8,4 km/h (2 Bft)
08.02.2011 10:32 13,6 C 6,7 C 0,0 UV-I 7,4 C 53 % 82 % 100 % 1023,9 hPa 0,0 l/m 4,0 km/h (1 Bft) 2 min 0 min 7,1 km/h (2 Bft)
08.02.2011 10:34 13,6 C 6,7 C 0,0 UV-I 7,6 C 53 % 82 % 100 % 1023,9 hPa 0,0 l/m 2,4 km/h (1 Bft) 2 min 0 min 3,2 km/h (1 Bft)
08.02.2011 10:36 13,6 C 6,7 C 0,0 UV-I 7,7 C 53 % 82 % 100 % 1023,9 hPa 0,0 l/m 2,8 km/h (1 Bft) 2 min 0 min 6,1 km/h (2 Bft)
08.02.2011 10:38 13,6 C 6,7 C 0,0 UV-I 7,8 C 53 % 82 % 100 % 1023,9 hPa 0,0 l/m 3,2 km/h (1 Bft) 2 min 0 min 4,2 km/h (1 Bft)
08.02.2011 10:40 13,6 C 6,8 C 0,0 UV-I 7,8 C 53 % 82 % 100 % 1023,9 hPa 0,0 l/m 2,8 km/h (1 Bft) 2 min 0 min 5,8 km/h (2 Bft)
08.02.2011 10:42 13,6 C 6,8 C 0,0 UV-I 7,8 C 53 % 82 % 100 % 1023,9 hPa 0,0 l/m 3,2 km/h (1 Bft) 2 min 0 min 0,0 km/h (0 Bft)
08.02.2011 10:44 13,6 C 6,9 C 0,0 UV-I 7,9 C 53 % 82 % 100 % 1023,9 hPa 0,0 l/m 4,0 km/h (1 Bft) 2 min 0 min 12,9 km/h (3 Bft)
08.02.2011 10:46 13,6 C 6,9 C 0,0 UV-I 7,9 C 53 % 82 % 100 % 1024,2 hPa 0,0 l/m 3,6 km/h (1 Bft) 2 min 0 min 3,2 km/h (1 Bft)
08.02.2011 10:48 13,6 C 7,1 C 0,0 UV-I 7,9 C 53 % 82 % 100 % 1024,2 hPa 0,0 l/m 2,8 km/h (1 Bft) 2 min 0 min 4,8 km/h (1 Bft)
08.02.2011 10:50 13,6 C 7,1 C 0,0 UV-I 8,0 C 53 % 81 % 100 % 1024,2 hPa 0,0 l/m 2,8 km/h (1 Bft) 2 min 0 min 6,4 km/h (2 Bft)
08.02.2011 10:52 13,6 C 7,3 C 0,0 UV-I 7,9 C 53 % 81 % 100 % 1024,2 hPa 0,0 l/m 2,4 km/h (1 Bft) 2 min 0 min 3,5 km/h (1 Bft)
08.02.2011 10:54 13,6 C 7,2 C 0,0 UV-I 8,0 C 53 % 81 % 100 % 1024,2 hPa 0,0 l/m 2,4 km/h (1 Bft) 2 min 0 min 0,0 km/h (0 Bft)
08.02.2011 10:56 13,6 C 7,3 C 0,0 UV-I 8,0 C 53 % 81 % 100 % 1024,2 hPa 0,0 l/m 2,0 km/h (1 Bft) 2 min 0 min 4,5 km/h (1 Bft)
08.02.2011 10:58 13,6 C 7,5 C 0,0 UV-I 7,8 C 53 % 81 % 100 % 1024,2 hPa 0,0 l/m 2,4 km/h (1 Bft) 2 min 0 min 6,4 km/h (2 Bft)
08.02.2011 11:00 13,6 C 7,5 C 0,0 UV-I 8,0 C 53 % 80 % 100 % 1024,2 hPa 0,0 l/m 2,8 km/h (1 Bft) 2 min 0 min 4,5 km/h (1 Bft)
08.02.2011 11:02 13,8 C 7,5 C 0,0 UV-I 8,1 C 53 % 80 % 100 % 1024,2 hPa 0,0 l/m 2,8 km/h (1 Bft) 2 min 0 min 6,8 km/h (2 Bft)
08.02.2011 11:04 13,6 C 7,5 C 0,0 UV-I 8,1 C 53 % 80 % 100 % 1024,2 hPa 0,0 l/m 3,6 km/h (1 Bft) 2 min 0 min 7,7 km/h (2 Bft)
08.02.2011 11:06 13,6 C 7,6 C 0,0 UV-I 7,8 C 53 % 80 % 100 % 1024,2 hPa 0,0 l/m 4,4 km/h (1 Bft) 2 min 0 min 7,7 km/h (2 Bft)
08.02.2011 11:08 13,8 C 7,6 C 0,0 UV-I 7,8 C 53 % 80 % 100 % 1024,2 hPa 0,0 l/m 4,4 km/h (1 Bft) 2 min 0 min 3,2 km/h (1 Bft)
08.02.2011 11:10 13,8 C 7,6 C 0,0 UV-I 7,9 C 53 % 80 % 100 % 1024,2 hPa 0,0 l/m 4,4 km/h (1 Bft) 2 min 0 min 4,2 km/h (1 Bft)
08.02.2011 11:12 13,8 C 7,6 C 0,0 UV-I 8,0 C 53 % 80 % 100 % 1024,2 hPa 0,0 l/m 4,4 km/h (1 Bft) 2 min 0 min 4,2 km/h (1 Bft)
08.02.2011 11:14 13,8 C 7,7 C 0,0 UV-I 7,9 C 52 % 79 % 100 % 1024,2 hPa 0,0 l/m 4,4 km/h (1 Bft) 2 min 0 min 3,9 km/h (1 Bft)
08.02.2011 11:16 13,8 C 7,9 C 0,0 UV-I 7,7 C 52 % 79 % 100 % 1024,2 hPa 0,0 l/m 4,0 km/h (1 Bft) 2 min 0 min 4,5 km/h (1 Bft)
08.02.2011 11:18 13,8 C 7,9 C 0,0 UV-I 7,8 C 52 % 79 % 100 % 1024,2 hPa 0,0 l/m 3,6 km/h (1 Bft) 2 min 0 min 0,0 km/h (0 Bft)
08.02.2011 11:20 13,8 C 8,0 C 0,4 UV-I 8,0 C 52 % 78 % 100 % 1024,2 hPa 0,0 l/m 4,0 km/h (1 Bft) 2 min 0 min 7,4 km/h (2 Bft)
08.02.2011 11:22 13,8 C 8,0 C 0,4 UV-I 7,9 C 52 % 78 % 100 % 1024,2 hPa 0,0 l/m 4,8 km/h (1 Bft) 2 min 0 min 0,0 km/h (0 Bft)
08.02.2011 11:24 13,8 C 8,0 C 0,4 UV-I 8,0 C 52 % 77 % 100 % 1024,2 hPa 0,0 l/m 4,8 km/h (1 Bft) 2 min 0 min 10,9 km/h (2 Bft)
08.02.2011 11:26 13,8 C 8,0 C 0,9 UV-I 7,9 C 52 % 77 % 100 % 1024,0 hPa 0,0 l/m 5,6 km/h (1 Bft) 2 min 0 min 8,0 km/h (2 Bft)
08.02.2011 11:28 13,8 C 8,0 C 0,9 UV-I 7,8 C 52 % 76 % 100 % 1024,0 hPa 0,0 l/m 6,4 km/h (2 Bft) 2 min 0 min 7,1 km/h (2 Bft)
08.02.2011 11:30 13,8 C 8,0 C 1,6 UV-I 7,7 C 52 % 76 % 100 % 1024,0 hPa 0,0 l/m 6,8 km/h (2 Bft) 2 min 0 min 11,9 km/h (2 Bft)
08.02.2011 11:32 13,8 C 8,0 C 1,6 UV-I 7,8 C 52 % 76 % 100 % 1024,0 hPa 0,0 l/m 6,0 km/h (2 Bft) 2 min 0 min 4,8 km/h (1 Bft)
08.02.2011 11:34 13,8 C 8,1 C 1,6 UV-I 7,7 C 52 % 77 % 100 % 1024,0 hPa 0,0 l/m 6,0 km/h (2 Bft) 2 min 0 min 5,5 km/h (1 Bft)
08.02.2011 11:36 13,8 C 8,3 C 1,2 UV-I 7,7 C 52 % 76 % 100 % 1024,0 hPa 0,0 l/m 5,6 km/h (1 Bft) 2 min 0 min 7,4 km/h (2 Bft)
08.02.2011 11:38 13,8 C 8,3 C 1,2 UV-I 7,7 C 52 % 77 % 100 % 1024,0 hPa 0,0 l/m 4,8 km/h (1 Bft) 2 min 0 min 4,5 km/h (1 Bft)
08.02.2011 11:40 13,9 C 8,4 C 0,3 UV-I 7,6 C 52 % 76 % 100 % 1024,0 hPa 0,0 l/m 4,0 km/h (1 Bft) 2 min 0 min 4,8 km/h (1 Bft)
08.02.2011 11:42 13,9 C 8,5 C 0,3 UV-I 7,8 C 52 % 76 % 100 % 1024,0 hPa 0,0 l/m 3,6 km/h (1 Bft) 2 min 0 min 7,4 km/h (2 Bft)
08.02.2011 11:44 13,9 C 8,5 C 0,3 UV-I 7,9 C 52 % 75 % 100 % 1024,0 hPa 0,0 l/m 3,6 km/h (1 Bft) 2 min 0 min 0,0 km/h (0 Bft)
08.02.2011 11:46 13,9 C 8,6 C 0,0 UV-I 7,9 C 52 % 75 % 100 % 1024,6 hPa 0,0 l/m 4,0 km/h (1 Bft) 2 min 0 min 10,3 km/h (2 Bft)
08.02.2011 11:48 13,9 C 8,7 C 0,0 UV-I 7,8 C 52 % 75 % 100 % 1024,6 hPa 0,0 l/m 4,0 km/h (1 Bft) 2 min 0 min 6,4 km/h (2 Bft)
08.02.2011 11:50 13,9 C 8,7 C 0,0 UV-I 7,7 C 52 % 74 % 100 % 1024,6 hPa 0,0 l/m 4,4 km/h (1 Bft) 2 min 0 min 5,5 km/h (1 Bft)
08.02.2011 11:52 13,9 C 8,7 C 0,0 UV-I 7,6 C 52 % 74 % 100 % 1024,6 hPa 0,0 l/m 4,8 km/h (1 Bft) 2 min 0 min 3,9 km/h (1 Bft)
08.02.2011 11:54 13,9 C 8,6 C 0,0 UV-I 7,7 C 52 % 74 % 100 % 1024,6 hPa 0,0 l/m 4,0 km/h (1 Bft) 2 min 0 min 6,1 km/h (2 Bft)
08.02.2011 11:56 13,9 C 8,7 C 0,0 UV-I 7,7 C 52 % 73 % 100 % 1024,6 hPa 0,0 l/m 4,4 km/h (1 Bft) 2 min 0 min 7,4 km/h (2 Bft)
08.02.2011 11:58 13,8 C 8,8 C 0,0 UV-I 7,6 C 52 % 73 % 100 % 1024,6 hPa 0,0 l/m 4,8 km/h (1 Bft) 2 min 0 min 7,4 km/h (2 Bft)
08.02.2011 12:00 13,8 C 8,9 C 0,0 UV-I 7,6 C 52 % 73 % 100 % 1024,6 hPa 0,0 l/m 3,6 km/h (1 Bft) 2 min 0 min 6,4 km/h (2 Bft)
08.02.2011 12:02 13,8 C 8,8 C 0,0 UV-I 7,8 C 52 % 73 % 100 % 1024,6 hPa 0,0 l/m 3,6 km/h (1 Bft) 2 min 0 min 0,0 km/h (0 Bft)
08.02.2011 12:04 14,0 C 8,8 C 0,0 UV-I 7,8 C 52 % 73 % 100 % 1024,6 hPa 0,0 l/m 3,6 km/h (1 Bft) 2 min 0 min 0,0 km/h (0 Bft)
08.02.2011 12:06 14,0 C 8,9 C 0,0 UV-I 7,9 C 52 % 73 % 100 % 1024,5 hPa 0,0 l/m 4,8 km/h (1 Bft) 2 min 0 min 4,8 km/h (1 Bft)
08.02.2011 12:08 14,0 C 8,9 C 0,0 UV-I 7,7 C 52 % 73 % 100 % 1024,5 hPa 0,0 l/m 4,4 km/h (1 Bft) 2 min 0 min 3,9 km/h (1 Bft)
08.02.2011 12:10 14,0 C 8,9 C 0,0 UV-I 7,7 C 52 % 73 % 100 % 1024,5 hPa 0,0 l/m 4,8 km/h (1 Bft) 2 min 0 min 5,8 km/h (2 Bft)
08.02.2011 12:12 14,0 C 9,0 C 0,0 UV-I 7,6 C 52 % 72 % 100 % 1024,5 hPa 0,0 l/m 4,8 km/h (1 Bft) 2 min 0 min 7,1 km/h (2 Bft)
08.02.2011 12:14 14,0 C 9,1 C 0,0 UV-I 7,3 C 52 % 71 % 100 % 1024,5 hPa 0,0 l/m 5,6 km/h (1 Bft) 2 min 0 min 7,7 km/h (2 Bft)
08.02.2011 12:16 14,0 C 9,2 C 0,0 UV-I 7,2 C 52 % 71 % 100 % 1024,5 hPa 0,0 l/m 5,2 km/h (1 Bft) 2 min 0 min 6,8 km/h (2 Bft)
08.02.2011 12:18 13,9 C 9,3 C 0,0 UV-I 7,1 C 52 % 71 % 100 % 1024,5 hPa 0,0 l/m 5,2 km/h (1 Bft) 2 min 0 min 7,4 km/h (2 Bft)
08.02.2011 12:20 13,9 C 9,3 C 0,0 UV-I 7,1 C 51 % 71 % 100 % 1024,5 hPa 0,0 l/m 6,0 km/h (2 Bft) 2 min 0 min 0,0 km/h (0 Bft)
08.02.2011 12:22 13,9 C 9,2 C 0,0 UV-I 7,1 C 51 % 71 % 100 % 1024,5 hPa 0,0 l/m 5,6 km/h (1 Bft) 2 min 0 min 4,5 km/h (1 Bft)
08.02.2011 12:24 13,9 C 9,2 C 0,0 UV-I 7,2 C 51 % 71 % 100 % 1024,5 hPa 0,0 l/m 4,8 km/h (1 Bft) 2 min 0 min 0,0 km/h (0 Bft)
08.02.2011 12:26 13,9 C 9,5 C 0,0 UV-I 7,1 C 51 % 71 % 100 % 1024,8 hPa 0,0 l/m 4,4 km/h (1 Bft) 2 min 0 min 4,2 km/h (1 Bft)
08.02.2011 12:28 13,9 C 9,5 C 0,0 UV-I 7,2 C 51 % 70 % 100 % 1024,8 hPa 0,0 l/m 4,4 km/h (1 Bft) 2 min 0 min 4,5 km/h (1 Bft)
08.02.2011 12:30 13,9 C 9,5 C 0,0 UV-I 7,2 C 51 % 70 % 100 % 1024,8 hPa 0,0 l/m 3,6 km/h (1 Bft) 2 min 0 min 4,2 km/h (1 Bft)
08.02.2011 12:32 14,1 C 9,5 C 0,0 UV-I 7,4 C 51 % 71 % 100 % 1024,8 hPa 0,0 l/m 3,2 km/h (1 Bft) 2 min 0 min 8,7 km/h (2 Bft)
08.02.2011 12:34 14,1 C 9,6 C 0,0 UV-I 7,5 C 51 % 70 % 100 % 1024,8 hPa 0,0 l/m 4,0 km/h (1 Bft) 2 min 0 min 13,2 km/h (3 Bft)
08.02.2011 12:36 14,1 C 9,7 C 0,0 UV-I 7,4 C 51 % 70 % 100 % 1024,8 hPa 0,0 l/m 4,4 km/h (1 Bft) 2 min 0 min 7,4 km/h (2 Bft)
08.02.2011 12:38 14,1 C 9,7 C 0,0 UV-I 7,5 C 51 % 69 % 100 % 1024,8 hPa 0,0 l/m 5,2 km/h (1 Bft) 2 min 0 min 9,7 km/h (2 Bft)
08.02.2011 12:40 14,1 C 9,7 C 0,1 UV-I 7,4 C 51 % 69 % 100 % 1024,8 hPa 0,0 l/m 5,2 km/h (1 Bft) 2 min 0 min 7,7 km/h (2 Bft)
08.02.2011 12:42 14,1 C 9,7 C 0,1 UV-I 7,4 C 51 % 69 % 100 % 1024,8 hPa 0,0 l/m 6,4 km/h (2 Bft) 2 min 0 min 5,8 km/h (2 Bft)
08.02.2011 12:44 14,2 C 9,8 C 0,1 UV-I 7,3 C 51 % 69 % 100 % 1024,8 hPa 0,0 l/m 6,0 km/h (2 Bft) 2 min 0 min 4,8 km/h (1 Bft)
08.02.2011 12:46 14,2 C 9,9 C 0,2 UV-I 7,3 C 51 % 68 % 100 % 1024,7 hPa 0,0 l/m 6,4 km/h (2 Bft) 2 min 0 min 4,8 km/h (1 Bft)
08.02.2011 12:48 14,2 C 9,9 C 0,2 UV-I 7,2 C 51 % 68 % 100 % 1024,7 hPa 0,0 l/m 6,4 km/h (2 Bft) 2 min 0 min 6,1 km/h (2 Bft)
08.02.2011 12:50 14,2 C 9,8 C 0,2 UV-I 7,3 C 51 % 67 % 100 % 1024,7 hPa 0,0 l/m 6,0 km/h (2 Bft) 2 min 0 min 4,2 km/h (1 Bft)
08.02.2011 12:52 14,2 C 9,9 C 0,2 UV-I 7,2 C 51 % 67 % 100 % 1024,7 hPa 0,0 l/m 6,0 km/h (2 Bft) 2 min 0 min 8,0 km/h (2 Bft)
08.02.2011 12:54 14,1 C 10,1 C 0,2 UV-I 7,0 C 51 % 67 % 100 % 1024,7 hPa 0,0 l/m 6,8 km/h (2 Bft) 2 min 0 min 11,9 km/h (2 Bft)
08.02.2011 12:56 14,3 C 10,0 C 0,2 UV-I 7,1 C 51 % 67 % 100 % 1024,7 hPa 0,0 l/m 6,8 km/h (2 Bft) 2 min 0 min 8,0 km/h (2 Bft)
08.02.2011 12:58 14,3 C 10,1 C 0,2 UV-I 7,0 C 51 % 67 % 100 % 1024,7 hPa 0,0 l/m 6,0 km/h (2 Bft) 2 min 0 min 3,5 km/h (1 Bft)
08.02.2011 13:00 14,2 C 10,3 C 0,3 UV-I 7,0 C 51 % 66 % 100 % 1024,7 hPa 0,0 l/m 5,6 km/h (1 Bft) 2 min 0 min 3,2 km/h (1 Bft)
08.02.2011 13:02 14,4 C 10,3 C 0,3 UV-I 7,1 C 51 % 66 % 100 % 1024,7 hPa 0,0 l/m 5,6 km/h (1 Bft) 2 min 0 min 6,1 km/h (2 Bft)
08.02.2011 13:04 14,4 C 10,3 C 0,3 UV-I 7,2 C 51 % 66 % 100 % 1024,7 hPa 0,0 l/m 5,2 km/h (1 Bft) 2 min 0 min 11,3 km/h (2 Bft)
08.02.2011 13:06 14,3 C 10,2 C 0,3 UV-I 7,1 C 51 % 65 % 100 % 1025,2 hPa 0,0 l/m 5,6 km/h (1 Bft) 2 min 0 min 8,7 km/h (2 Bft)
08.02.2011 13:08 14,3 C 10,3 C 0,3 UV-I 6,9 C 51 % 65 % 100 % 1025,2 hPa 0,0 l/m 6,0 km/h (2 Bft) 2 min 0 min 10,3 km/h (2 Bft)
08.02.2011 13:10 14,4 C 10,3 C 0,4 UV-I 6,8 C 51 % 63 % 100 % 1025,2 hPa 0,0 l/m 6,8 km/h (2 Bft) 2 min 0 min 6,1 km/h (2 Bft)
08.02.2011 13:12 14,6 C 10,4 C 0,4 UV-I 6,7 C 51 % 64 % 100 % 1025,2 hPa 0,0 l/m 6,8 km/h (2 Bft) 2 min 0 min 12,6 km/h (3 Bft)
08.02.2011 13:14 14,6 C 10,4 C 0,4 UV-I 6,8 C 51 % 63 % 100 % 1025,2 hPa 0,0 l/m 7,6 km/h (2 Bft) 2 min 0 min 8,0 km/h (2 Bft)
08.02.2011 13:16 14,6 C 10,4 C 0,4 UV-I 6,7 C 51 % 63 % 100 % 1025,2 hPa 0,0 l/m 7,2 km/h (2 Bft) 2 min 0 min 3,2 km/h (1 Bft)
08.02.2011 13:18 14,7 C 10,3 C 0,4 UV-I 6,8 C 51 % 62 % 100 % 1025,2 hPa 0,0 l/m 7,6 km/h (2 Bft) 2 min 0 min 7,1 km/h (2 Bft)
08.02.2011 13:20 14,8 C 10,3 C 0,3 UV-I 6,6 C 51 % 62 % 100 % 1025,2 hPa 0,0 l/m 7,6 km/h (2 Bft) 2 min 0 min 10,0 km/h (2 Bft)
08.02.2011 13:22 14,8 C 10,4 C 0,3 UV-I 6,5 C 51 % 63 % 100 % 1025,2 hPa 0,0 l/m 8,0 km/h (2 Bft) 2 min 0 min 8,0 km/h (2 Bft)
08.02.2011 13:24 14,9 C 10,4 C 0,3 UV-I 6,6 C 51 % 63 % 100 % 1025,2 hPa 0,0 l/m 7,2 km/h (2 Bft) 2 min 0 min 5,5 km/h (1 Bft)
08.02.2011 13:26 15,0 C 10,6 C 0,4 UV-I 6,5 C 51 % 62 % 100 % 1025,6 hPa 0,0 l/m 7,6 km/h (2 Bft) 2 min 0 min 10,9 km/h (2 Bft)
08.02.2011 13:28 15,0 C 10,5 C 0,4 UV-I 6,6 C 51 % 62 % 100 % 1025,6 hPa 0,0 l/m 7,2 km/h (2 Bft) 2 min 0 min 5,5 km/h (1 Bft)
08.02.2011 13:30 15,1 C 10,6 C 0,4 UV-I 6,6 C 50 % 62 % 100 % 1025,6 hPa 0,0 l/m 6,8 km/h (2 Bft) 2 min 0 min 9,3 km/h (2 Bft)
08.02.2011 13:32 15,1 C 10,6 C 0,4 UV-I 6,7 C 50 % 61 % 100 % 1025,6 hPa 0,0 l/m 7,2 km/h (2 Bft) 2 min 0 min 10,0 km/h (2 Bft)
08.02.2011 13:34 15,2 C 10,7 C 0,4 UV-I 6,5 C 50 % 62 % 100 % 1025,6 hPa 0,0 l/m 7,6 km/h (2 Bft) 2 min 0 min 4,2 km/h (1 Bft)
08.02.2011 13:36 15,3 C 10,6 C 0,3 UV-I 6,6 C 50 % 62 % 100 % 1025,6 hPa 0,0 l/m 6,4 km/h (2 Bft) 2 min 0 min 5,5 km/h (1 Bft)
08.02.2011 13:38 15,2 C 10,8 C 0,3 UV-I 6,5 C 50 % 62 % 100 % 1025,6 hPa 0,0 l/m 6,4 km/h (2 Bft) 2 min 0 min 6,4 km/h (2 Bft)
08.02.2011 13:40 15,4 C 10,9 C 0,4 UV-I 6,4 C 49 % 61 % 100 % 1025,6 hPa 0,0 l/m 6,4 km/h (2 Bft) 2 min 0 min 3,9 km/h (1 Bft)
08.02.2011 13:42 15,4 C 10,8 C 0,4 UV-I 6,6 C 49 % 61 % 100 % 1025,6 hPa 0,0 l/m 7,2 km/h (2 Bft) 2 min 0 min 9,0 km/h (2 Bft)
08.02.2011 13:44 15,5 C 10,8 C 0,4 UV-I 6,5 C 49 % 61 % 100 % 1025,6 hPa 0,0 l/m 6,8 km/h (2 Bft) 2 min 0 min 4,8 km/h (1 Bft)
08.02.2011 13:46 15,6 C 10,8 C 0,3 UV-I 6,5 C 49 % 59 % 100 % 1027,4 hPa 0,0 l/m 7,6 km/h (2 Bft) 2 min 0 min 10,6 km/h (2 Bft)
08.02.2011 13:48 15,6 C 10,8 C 0,3 UV-I 6,4 C 49 % 60 % 100 % 1027,4 hPa 0,0 l/m 8,0 km/h (2 Bft) 2 min 0 min 6,4 km/h (2 Bft)
08.02.2011 13:50 15,7 C 10,8 C 0,3 UV-I 6,4 C 48 % 60 % 100 % 1027,4 hPa 0,0 l/m 8,0 km/h (2 Bft) 2 min 0 min 3,9 km/h (1 Bft)
08.02.2011 13:52 15,6 C 10,9 C 0,3 UV-I 6,4 C 48 % 60 % 100 % 1027,4 hPa 0,0 l/m 7,6 km/h (2 Bft) 2 min 0 min 0,0 km/h (0 Bft)
08.02.2011 13:54 15,8 C 10,9 C 0,3 UV-I 6,6 C 48 % 61 % 100 % 1027,4 hPa 0,0 l/m 6,4 km/h (2 Bft) 2 min 0 min 3,9 km/h (1 Bft)
08.02.2011 13:56 15,8 C 10,9 C 0,2 UV-I 6,8 C 47 % 61 % 100 % 1027,4 hPa 0,0 l/m 6,0 km/h (2 Bft) 2 min 0 min 9,7 km/h (2 Bft)
08.02.2011 13:58 16,0 C 11,0 C 0,2 UV-I 6,8 C 47 % 60 % 100 % 1027,4 hPa 0,0 l/m 5,6 km/h (1 Bft) 2 min 0 min 10,6 km/h (2 Bft)
08.02.2011 14:00 16,0 C 11,1 C 0,3 UV-I 6,7 C 47 % 59 % 100 % 1027,4 hPa 0,0 l/m 6,0 km/h (2 Bft) 2 min 0 min 13,8 km/h (3 Bft)
08.02.2011 14:02 15,9 C 11,0 C 0,3 UV-I 6,8 C 47 % 60 % 100 % 1027,4 hPa 0,0 l/m 6,8 km/h (2 Bft) 2 min 0 min 8,7 km/h (2 Bft)
08.02.2011 14:04 16,1 C 11,1 C 0,3 UV-I 6,5 C 47 % 61 % 100 % 1027,4 hPa 0,0 l/m 7,2 km/h (2 Bft) 2 min 0 min 3,9 km/h (1 Bft)
08.02.2011 14:06 16,2 C 11,1 C 0,3 UV-I 6,5 C 47 % 61 % 100 % 1027,2 hPa 0,0 l/m 7,2 km/h (2 Bft) 2 min 0 min 7,7 km/h (2 Bft)
08.02.2011 14:08 16,2 C 11,2 C 0,3 UV-I 6,5 C 47 % 61 % 100 % 1027,2 hPa 0,0 l/m 7,2 km/h (2 Bft) 2 min 0 min 6,1 km/h (2 Bft)
08.02.2011 14:10 16,2 C 11,3 C 0,3 UV-I 6,5 C 46 % 60 % 100 % 1027,2 hPa 0,0 l/m 6,8 km/h (2 Bft) 2 min 0 min 5,8 km/h (2 Bft)
08.02.2011 14:12 16,4 C 11,5 C 0,3 UV-I 6,4 C 46 % 60 % 100 % 1027,2 hPa 0,0 l/m 6,0 km/h (2 Bft) 2 min 0 min 4,8 km/h (1 Bft)
08.02.2011 14:14 16,4 C 11,5 C 0,3 UV-I 6,4 C 46 % 59 % 100 % 1027,2 hPa 0,0 l/m 5,6 km/h (1 Bft) 2 min 0 min 0,0 km/h (0 Bft)
08.02.2011 14:16 16,5 C 11,5 C 0,3 UV-I 6,4 C 46 % 59 % 100 % 1027,2 hPa 0,0 l/m 6,0 km/h (2 Bft) 2 min 0 min 9,3 km/h (2 Bft)
08.02.2011 14:18 16,6 C 11,4 C 0,3 UV-I 6,5 C 46 % 59 % 100 % 1027,2 hPa 0,0 l/m 5,2 km/h (1 Bft) 2 min 0 min 6,4 km/h (2 Bft)
08.02.2011 14:20 16,6 C 11,5 C 0,3 UV-I 6,6 C 45 % 58 % 100 % 1027,2 hPa 0,0 l/m 5,6 km/h (1 Bft) 2 min 0 min 10,3 km/h (2 Bft)
08.02.2011 14:22 16,6 C 11,5 C 0,3 UV-I 6,7 C 45 % 58 % 100 % 1027,2 hPa 0,0 l/m 6,0 km/h (2 Bft) 2 min 0 min 6,4 km/h (2 Bft)
08.02.2011 14:24 16,8 C 11,5 C 0,3 UV-I 6,7 C 45 % 58 % 100 % 1027,2 hPa 0,0 l/m 4,8 km/h (1 Bft) 2 min 0 min 4,2 km/h (1 Bft)
08.02.2011 14:26 16,8 C 11,5 C 0,3 UV-I 6,9 C 45 % 58 % 100 % 1026,8 hPa 0,0 l/m 5,2 km/h (1 Bft) 2 min 0 min 8,4 km/h (2 Bft)
08.02.2011 14:28 16,8 C 11,4 C 0,3 UV-I 7,0 C 45 % 58 % 100 % 1026,8 hPa 0,0 l/m 5,2 km/h (1 Bft) 2 min 0 min 4,8 km/h (1 Bft)
08.02.2011 14:30 16,8 C 11,5 C 0,4 UV-I 6,8 C 45 % 58 % 100 % 1026,8 hPa 0,0 l/m 5,6 km/h (1 Bft) 2 min 0 min 6,8 km/h (2 Bft)
08.02.2011 14:32 16,9 C 11,5 C 0,4 UV-I 6,8 C 44 % 58 % 100 % 1026,8 hPa 0,0 l/m 4,8 km/h (1 Bft) 2 min 0 min 13,2 km/h (3 Bft)
08.02.2011 14:34 17,0 C 11,6 C 0,4 UV-I 6,6 C 44 % 57 % 100 % 1026,8 hPa 0,0 l/m 6,4 km/h (2 Bft) 2 min 0 min 10,6 km/h (2 Bft)
08.02.2011 14:36 17,0 C 11,5 C 0,5 UV-I 6,5 C 44 % 57 % 100 % 1026,8 hPa 0,0 l/m 8,0 km/h (2 Bft) 2 min 0 min 13,5 km/h (3 Bft)
08.02.2011 14:38 17,0 C 11,3 C 0,5 UV-I 6,3 C 44 % 58 % 100 % 1026,8 hPa 0,0 l/m 8,4 km/h (2 Bft) 2 min 0 min 6,4 km/h (2 Bft)
08.02.2011 14:40 17,1 C 11,3 C 0,6 UV-I 6,2 C 44 % 58 % 100 % 1026,8 hPa 0,0 l/m 8,8 km/h (2 Bft) 2 min 0 min 3,2 km/h (1 Bft)
08.02.2011 14:42 17,1 C 11,2 C 0,6 UV-I 6,2 C 44 % 58 % 100 % 1026,8 hPa 0,0 l/m 9,2 km/h (2 Bft) 2 min 0 min 11,6 km/h (2 Bft)
08.02.2011 14:44 17,2 C 11,3 C 0,6 UV-I 5,8 C 44 % 58 % 100 % 1026,8 hPa 0,0 l/m 7,6 km/h (2 Bft) 2 min 0 min 0,0 km/h (0 Bft)
08.02.2011 14:46 17,2 C 11,5 C 0,5 UV-I 5,7 C 44 % 58 % 100 % 1026,7 hPa 0,0 l/m 6,4 km/h (2 Bft) 2 min 0 min 8,4 km/h (2 Bft)
08.02.2011 14:48 17,2 C 11,5 C 0,5 UV-I 5,8 C 44 % 57 % 100 % 1026,7 hPa 0,0 l/m 5,6 km/h (1 Bft) 2 min 0 min 9,3 km/h (2 Bft)
08.02.2011 14:50 17,3 C 11,5 C 0,4 UV-I 5,7 C 44 % 57 % 100 % 1026,7 hPa 0,0 l/m 6,8 km/h (2 Bft) 2 min 0 min 24,5 km/h (4 Bft)
08.02.2011 14:52 17,2 C 11,5 C 0,4 UV-I 5,5 C 44 % 56 % 100 % 1026,7 hPa 0,0 l/m 7,6 km/h (2 Bft) 2 min 0 min 10,6 km/h (2 Bft)
08.02.2011 14:54 17,4 C 11,4 C 0,4 UV-I 5,6 C 43 % 56 % 100 % 1026,7 hPa 0,0 l/m 8,0 km/h (2 Bft) 2 min 0 min 11,3 km/h (2 Bft)
08.02.2011 14:56 17,4 C 11,5 C 0,5 UV-I 5,4 C 43 % 57 % 100 % 1026,7 hPa 0,0 l/m 8,0 km/h (2 Bft) 2 min 0 min 0,0 km/h (0 Bft)
08.02.2011 14:58 17,4 C 11,5 C 0,5 UV-I 5,5 C 43 % 57 % 100 % 1026,7 hPa 0,0 l/m 8,0 km/h (2 Bft) 2 min 0 min 3,5 km/h (1 Bft)
08.02.2011 15:00 17,5 C 11,4 C 0,4 UV-I 5,7 C 43 % 57 % 100 % 1026,7 hPa 0,0 l/m 7,6 km/h (2 Bft) 2 min 0 min 8,4 km/h (2 Bft)
08.02.2011 15:02 17,5 C 11,5 C 0,4 UV-I 5,7 C 43 % 57 % 100 % 1026,7 hPa 0,0 l/m 5,6 km/h (1 Bft) 2 min 0 min 3,2 km/h (1 Bft)
08.02.2011 15:04 17,5 C 11,5 C 0,4 UV-I 5,7 C 43 % 57 % 100 % 1026,7 hPa 0,0 l/m 6,0 km/h (2 Bft) 2 min 0 min 7,1 km/h (2 Bft)
08.02.2011 15:06 17,6 C 11,5 C 0,3 UV-I 5,8 C 43 % 56 % 100 % 1026,9 hPa 0,0 l/m 5,2 km/h (1 Bft) 2 min 0 min 6,8 km/h (2 Bft)
08.02.2011 15:08 17,6 C 11,4 C 0,3 UV-I 5,8 C 43 % 56 % 100 % 1026,9 hPa 0,0 l/m 6,0 km/h (2 Bft) 2 min 0 min 12,2 km/h (2 Bft)
08.02.2011 15:10 17,6 C 11,5 C 0,3 UV-I 5,6 C 43 % 57 % 100 % 1026,9 hPa 0,0 l/m 5,6 km/h (1 Bft) 2 min 0 min 4,2 km/h (1 Bft)
08.02.2011 15:12 17,6 C 11,4 C 0,3 UV-I 5,7 C 43 % 57 % 100 % 1026,9 hPa 0,0 l/m 5,2 km/h (1 Bft) 2 min 0 min 0,0 km/h (0 Bft)
08.02.2011 15:14 17,6 C 11,4 C 0,3 UV-I 5,9 C 43 % 56 % 100 % 1026,9 hPa 0,0 l/m 5,2 km/h (1 Bft) 2 min 0 min 6,1 km/h (2 Bft)
08.02.2011 15:16 17,7 C 11,5 C 0,2 UV-I 5,9 C 42 % 56 % 100 % 1026,9 hPa 0,0 l/m 4,8 km/h (1 Bft) 2 min 0 min 5,1 km/h (1 Bft)
08.02.2011 15:18 17,7 C 11,3 C 0,2 UV-I 5,8 C 42 % 56 % 100 % 1026,9 hPa 0,0 l/m 4,8 km/h (1 Bft) 2 min 0 min 7,4 km/h (2 Bft)
08.02.2011 15:20 17,7 C 11,3 C 0,2 UV-I 5,3 C 42 % 55 % 100 % 1026,9 hPa 0,0 l/m 4,4 km/h (1 Bft) 2 min 0 min 8,7 km/h (2 Bft)
08.02.2011 15:22 17,7 C 11,3 C 0,2 UV-I 5,1 C 42 % 56 % 100 % 1026,9 hPa 0,0 l/m 4,4 km/h (1 Bft) 2 min 0 min 4,2 km/h (1 Bft)
08.02.2011 15:24 17,7 C 11,3 C 0,2 UV-I 5,0 C 42 % 55 % 100 % 1026,9 hPa 0,0 l/m 5,2 km/h (1 Bft) 2 min 0 min 7,1 km/h (2 Bft)
08.02.2011 15:26 17,8 C 11,2 C 0,1 UV-I 5,1 C 42 % 55 % 100 % 1027,4 hPa 0,0 l/m 5,2 km/h (1 Bft) 2 min 0 min 8,4 km/h (2 Bft)
08.02.2011 15:28 17,8 C 11,3 C 0,1 UV-I 4,8 C 42 % 54 % 100 % 1027,4 hPa 0,0 l/m 5,6 km/h (1 Bft) 2 min 0 min 5,8 km/h (2 Bft)
08.02.2011 15:30 17,8 C 11,3 C 0,1 UV-I 5,0 C 42 % 54 % 100 % 1027,4 hPa 0,0 l/m 5,6 km/h (1 Bft) 2 min 0 min 9,0 km/h (2 Bft)
08.02.2011 15:32 17,8 C 11,3 C 0,1 UV-I 5,1 C 42 % 54 % 100 % 1027,4 hPa 0,0 l/m 5,6 km/h (1 Bft) 2 min 0 min 4,5 km/h (1 Bft)
08.02.2011 15:34 17,9 C 11,3 C 0,1 UV-I 5,3 C 42 % 54 % 100 % 1027,4 hPa 0,0 l/m 4,8 km/h (1 Bft) 2 min 0 min 0,0 km/h (0 Bft)
08.02.2011 15:36 17,9 C 11,3 C 0,0 UV-I 5,4 C 42 % 53 % 100 % 1027,4 hPa 0,0 l/m 5,2 km/h (1 Bft) 2 min 0 min 6,8 km/h (2 Bft)
08.02.2011 15:38 18,0 C 11,3 C 0,0 UV-I 5,4 C 42 % 53 % 100 % 1027,4 hPa 0,0 l/m 4,8 km/h (1 Bft) 2 min 0 min 0,0 km/h (0 Bft)
08.02.2011 15:40 17,9 C 11,2 C 0,0 UV-I 5,5 C 42 % 53 % 100 % 1027,4 hPa 0,0 l/m 5,6 km/h (1 Bft) 2 min 0 min 12,2 km/h (2 Bft)
08.02.2011 15:42 18,0 C 11,2 C 0,0 UV-I 5,4 C 42 % 52 % 100 % 1027,4 hPa 0,0 l/m 6,4 km/h (2 Bft) 2 min 0 min 9,3 km/h (2 Bft)
08.02.2011 15:44 18,0 C 11,1 C 0,0 UV-I 5,2 C 42 % 53 % 100 % 1027,4 hPa 0,0 l/m 6,4 km/h (2 Bft) 2 min 0 min 6,4 km/h (2 Bft)
08.02.2011 15:46 18,0 C 11,0 C 0,0 UV-I 5,1 C 42 % 53 % 100 % 1027,3 hPa 0,0 l/m 6,4 km/h (2 Bft) 2 min 0 min 0,0 km/h (0 Bft)
08.02.2011 15:48 18,0 C 11,0 C 0,0 UV-I 5,0 C 42 % 53 % 100 % 1027,3 hPa 0,0 l/m 6,0 km/h (2 Bft) 2 min 0 min 11,6 km/h (2 Bft)
08.02.2011 15:50 18,0 C 11,0 C 0,0 UV-I 4,7 C 42 % 52 % 100 % 1027,3 hPa 0,0 l/m 6,8 km/h (2 Bft) 2 min 0 min 7,7 km/h (2 Bft)
08.02.2011 15:52 18,0 C 11,1 C 0,0 UV-I 4,4 C 42 % 53 % 100 % 1027,3 hPa 0,0 l/m 6,4 km/h (2 Bft) 2 min 0 min 8,4 km/h (2 Bft)
08.02.2011 15:54 18,1 C 10,9 C 0,0 UV-I 4,5 C 41 % 53 % 100 % 1027,3 hPa 0,0 l/m 6,4 km/h (2 Bft) 2 min 0 min 9,3 km/h (2 Bft)
08.02.2011 15:56 18,1 C 10,9 C 0,0 UV-I 4,3 C 41 % 53 % 100 % 1027,3 hPa 0,0 l/m 6,0 km/h (2 Bft) 2 min 0 min 0,0 km/h (0 Bft)
08.02.2011 15:58 18,1 C 10,6 C 0,0 UV-I 4,6 C 41 % 54 % 100 % 1027,3 hPa 0,0 l/m 6,0 km/h (2 Bft) 2 min 0 min 0,0 km/h (0 Bft)
08.02.2011 16:00 18,1 C 10,5 C 0,0 UV-I 4,6 C 41 % 53 % 100 % 1027,3 hPa 0,0 l/m 5,2 km/h (1 Bft) 2 min 0 min 5,8 km/h (2 Bft)
08.02.2011 16:02 18,1 C 10,5 C 0,0 UV-I 4,1 C 41 % 54 % 100 % 1027,3 hPa 0,0 l/m 4,8 km/h (1 Bft) 2 min 0 min 4,8 km/h (1 Bft)
08.02.2011 16:04 18,1 C 10,4 C 0,0 UV-I 4,0 C 41 % 55 % 100 % 1027,3 hPa 0,0 l/m 4,4 km/h (1 Bft) 2 min 0 min 4,5 km/h (1 Bft)
08.02.2011 16:06 18,1 C 10,3 C 0,0 UV-I 4,2 C 41 % 54 % 100 % 1027,0 hPa 0,0 l/m 3,2 km/h (1 Bft) 2 min 0 min 4,8 km/h (1 Bft)
08.02.2011 16:08 18,2 C 10,3 C 0,0 UV-I 4,3 C 41 % 54 % 100 % 1027,0 hPa 0,0 l/m 3,2 km/h (1 Bft) 2 min 0 min 8,0 km/h (2 Bft)
08.02.2011 16:10 18,2 C 10,2 C 0,0 UV-I 4,5 C 41 % 54 % 100 % 1027,0 hPa 0,0 l/m 3,6 km/h (1 Bft) 2 min 0 min 4,2 km/h (1 Bft)
08.02.2011 16:12 18,2 C 10,1 C 0,0 UV-I 4,7 C 41 % 54 % 100 % 1027,0 hPa 0,0 l/m 3,2 km/h (1 Bft) 2 min 0 min 5,8 km/h (2 Bft)
08.02.2011 16:14 18,2 C 10,1 C 0,0 UV-I 4,6 C 41 % 54 % 100 % 1027,0 hPa 0,0 l/m 3,2 km/h (1 Bft) 2 min 0 min 0,0 km/h (0 Bft)
08.02.2011 16:16 18,1 C 10,1 C 0,0 UV-I 4,5 C 41 % 54 % 100 % 1027,0 hPa 0,0 l/m 2,8 km/h (1 Bft) 2 min 0 min 3,9 km/h (1 Bft)
08.02.2011 16:18 18,1 C 10,1 C 0,0 UV-I 3,9 C 41 % 54 % 100 % 1027,0 hPa 0,0 l/m 3,2 km/h (1 Bft) 2 min 0 min 3,9 km/h (1 Bft)
08.02.2011 16:20 18,1 C 10,0 C 0,0 UV-I 3,4 C 41 % 54 % 97 % 1027,0 hPa 0,0 l/m 2,8 km/h (1 Bft) 2 min 0 min 3,9 km/h (1 Bft)
08.02.2011 16:22 18,1 C 10,1 C 0,0 UV-I 2,5 C 41 % 55 % 71 % 1027,0 hPa 0,0 l/m 2,0 km/h (1 Bft) 2 min 0 min 0,0 km/h (0 Bft)
08.02.2011 16:24 18,1 C 10,0 C 0,0 UV-I 1,9 C 41 % 54 % 54 % 1027,0 hPa 0,0 l/m 2,0 km/h (1 Bft) 2 min 0 min 3,2 km/h (1 Bft)
08.02.2011 16:26 18,1 C 9,9 C 0,0 UV-I 1,5 C 41 % 54 % 43 % 1026,6 hPa 0,0 l/m 2,0 km/h (1 Bft) 2 min 0 min 14,2 km/h (3 Bft)
08.02.2011 16:28 18,0 C 9,9 C 0,0 UV-I 0,8 C 41 % 54 % 23 % 1026,6 hPa 0,0 l/m 2,0 km/h (1 Bft) 0 min 0 min 3,5 km/h (1 Bft)
08.02.2011 16:30 18,0 C 9,7 C 0,0 UV-I 0,5 C 41 % 55 % 14 % 1026,6 hPa 0,0 l/m 2,0 km/h (1 Bft) 0 min 0 min 3,9 km/h (1 Bft)
08.02.2011 16:32 18,0 C 9,6 C 0,0 UV-I 0,3 C 41 % 55 % 9 % 1026,6 hPa 0,0 l/m 1,6 km/h (1 Bft) 0 min 0 min 3,2 km/h (1 Bft)
08.02.2011 16:34 18,0 C 9,6 C 0,0 UV-I 0,0 C 41 % 56 % 0 % 1026,6 hPa 0,0 l/m 1,6 km/h (1 Bft) 0 min 0 min 6,4 km/h (2 Bft)
08.02.2011 16:36 18,0 C 9,5 C 0,0 UV-I 0,0 C 42 % 56 % 0 % 1026,6 hPa 0,0 l/m 2,4 km/h (1 Bft) 0 min 0 min 3,2 km/h (1 Bft)
08.02.2011 16:38 18,0 C 9,4 C 0,0 UV-I 0,0 C 41 % 56 % 0 % 1026,6 hPa 0,0 l/m 2,0 km/h (1 Bft) 0 min 0 min 8,4 km/h (2 Bft)
08.02.2011 16:40 17,9 C 9,5 C 0,0 UV-I 0,0 C 42 % 56 % 0 % 1026,6 hPa 0,0 l/m 2,0 km/h (1 Bft) 0 min 0 min 5,8 km/h (2 Bft)
08.02.2011 16:42 17,9 C 9,5 C 0,0 UV-I 0,0 C 42 % 56 % 0 % 1026,6 hPa 0,0 l/m 2,0 km/h (1 Bft) 0 min 0 min 4,8 km/h (1 Bft)
08.02.2011 16:44 17,9 C 9,3 C 0,0 UV-I 0,0 C 42 % 56 % 0 % 1026,6 hPa 0,0 l/m 2,0 km/h (1 Bft) 0 min 0 min 0,0 km/h (0 Bft)
08.02.2011 16:46 17,8 C 9,3 C 0,0 UV-I 0,0 C 42 % 56 % 0 % 1025,8 hPa 0,0 l/m 1,6 km/h (1 Bft) 0 min 0 min 0,0 km/h (0 Bft)
08.02.2011 16:48 17,8 C 9,2 C 0,0 UV-I 0,0 C 42 % 56 % 0 % 1025,8 hPa 0,0 l/m 1,2 km/h (1 Bft) 0 min 0 min 3,9 km/h (1 Bft)
08.02.2011 16:50 17,8 C 9,3 C 0,0 UV-I 0,0 C 42 % 56 % 0 % 1025,8 hPa 0,0 l/m 1,2 km/h (1 Bft) 0 min 0 min 0,0 km/h (0 Bft)
08.02.2011 16:52 17,7 C 9,2 C 0,0 UV-I 0,0 C 42 % 56 % 0 % 1025,8 hPa 0,0 l/m 0,8 km/h (0 Bft) 0 min 0 min 0,0 km/h (0 Bft)
08.02.2011 16:54 17,7 C 9,1 C 0,0 UV-I 0,0 C 42 % 56 % 0 % 1025,8 hPa 0,0 l/m 0,8 km/h (0 Bft) 0 min 0 min 5,5 km/h (1 Bft)
08.02.2011 16:56 17,7 C 9,1 C 0,0 UV-I 0,0 C 42 % 57 % 0 % 1025,8 hPa 0,0 l/m 1,2 km/h (1 Bft) 0 min 0 min 0,0 km/h (0 Bft)
08.02.2011 16:58 17,6 C 9,0 C 0,0 UV-I 0,0 C 42 % 57 % 0 % 1025,8 hPa 0,0 l/m 1,2 km/h (1 Bft) 0 min 0 min 0,0 km/h (0 Bft)
08.02.2011 17:00 17,6 C 9,1 C 0,0 UV-I 0,0 C 42 % 57 % 0 % 1025,8 hPa 0,0 l/m 0,8 km/h (0 Bft) 0 min 0 min 0,0 km/h (0 Bft)
08.02.2011 17:02 17,6 C 9,1 C 0,0 UV-I 0,0 C 42 % 57 % 0 % 1025,8 hPa 0,0 l/m 0,8 km/h (0 Bft) 0 min 0 min 4,2 km/h (1 Bft)
08.02.2011 17:04 17,6 C 8,9 C 0,0 UV-I 0,0 C 42 % 57 % 0 % 1025,8 hPa 0,0 l/m 0,8 km/h (0 Bft) 0 min 0 min 0,0 km/h (0 Bft)
08.02.2011 17:06 17,5 C 8,9 C 0,0 UV-I 0,0 C 42 % 57 % 0 % 1025,2 hPa 0,0 l/m 0,4 km/h (0 Bft) 0 min 0 min 0,0 km/h (0 Bft)
08.02.2011 17:08 17,5 C 8,8 C 0,0 UV-I 0,0 C 42 % 57 % 0 % 1025,2 hPa 0,0 l/m 0,4 km/h (0 Bft) 0 min 0 min 0,0 km/h (0 Bft)
08.02.2011 17:10 17,5 C 8,8 C 0,0 UV-I 0,0 C 42 % 57 % 0 % 1025,2 hPa 0,0 l/m 0,4 km/h (0 Bft) 0 min 0 min 0,0 km/h (0 Bft)
08.02.2011 17:12 17,4 C 8,9 C 0,0 UV-I 0,0 C 42 % 57 % 0 % 1025,2 hPa 0,0 l/m 0,4 km/h (0 Bft) 0 min 0 min 0,0 km/h (0 Bft)
08.02.2011 17:14 17,4 C 8,8 C 0,0 UV-I 0,0 C 42 % 57 % 0 % 1025,2 hPa 0,0 l/m 0,4 km/h (0 Bft) 0 min 0 min 0,0 km/h (0 Bft)
08.02.2011 17:16 17,2 C 8,7 C 0,0 UV-I 0,0 C 42 % 57 % 0 % 1025,2 hPa 0,0 l/m 0,4 km/h (0 Bft) 0 min 0 min 0,0 km/h (0 Bft)
08.02.2011 17:18 17,2 C 8,6 C 0,0 UV-I 0,0 C 42 % 57 % 0 % 1025,2 hPa 0,0 l/m 0,4 km/h (0 Bft) 0 min 0 min 0,0 km/h (0 Bft)
08.02.2011 17:20 17,2 C 8,7 C 0,0 UV-I 0,0 C 42 % 57 % 0 % 1025,2 hPa 0,0 l/m 0,8 km/h (0 Bft) 0 min 0 min 0,0 km/h (0 Bft)
08.02.2011 17:22 17,2 C 8,7 C 0,0 UV-I 0,0 C 42 % 58 % 0 % 1025,2 hPa 0,0 l/m 0,8 km/h (0 Bft) 0 min 0 min 0,0 km/h (0 Bft)
08.02.2011 17:24 17,2 C 8,5 C 0,0 UV-I 0,0 C 42 % 57 % 0 % 1025,2 hPa 0,0 l/m 1,2 km/h (1 Bft) 0 min 0 min 0,0 km/h (0 Bft)
08.02.2011 17:26 17,2 C 8,6 C 0,0 UV-I 0,0 C 42 % 58 % 0 % 1025,3 hPa 0,0 l/m 1,2 km/h (1 Bft) 0 min 0 min 0,0 km/h (0 Bft)
08.02.2011 17:28 17,1 C 8,5 C 0,0 UV-I 0,0 C 42 % 58 % 0 % 1025,3 hPa 0,0 l/m 0,8 km/h (0 Bft) 0 min 0 min 0,0 km/h (0 Bft)
08.02.2011 17:30 17,1 C 8,5 C 0,0 UV-I 0,0 C 42 % 58 % 0 % 1025,3 hPa 0,0 l/m 0,4 km/h (0 Bft) 0 min 0 min 0,0 km/h (0 Bft)
08.02.2011 17:32 17,0 C 8,4 C 0,0 UV-I 0,0 C 42 % 58 % 0 % 1025,3 hPa 0,0 l/m 0,4 km/h (0 Bft) 0 min 0 min 0,0 km/h (0 Bft)
08.02.2011 17:34 17,0 C 8,4 C 0,0 UV-I 0,0 C 42 % 58 % 0 % 1025,3 hPa 0,0 l/m 0,4 km/h (0 Bft) 0 min 0 min 0,0 km/h (0 Bft)
08.02.2011 17:36 16,9 C 8,4 C 0,0 UV-I 0,0 C 42 % 58 % 0 % 1025,3 hPa 0,0 l/m 0,0 km/h (0 Bft) 0 min 0 min 0,0 km/h (0 Bft)
08.02.2011 17:38 16,9 C 8,3 C 0,0 UV-I 0,0 C 42 % 58 % 0 % 1025,3 hPa 0,0 l/m 0,0 km/h (0 Bft) 0 min 0 min 0,0 km/h (0 Bft)
08.02.2011 17:40 16,8 C 8,2 C 0,0 UV-I 0,0 C 42 % 58 % 0 % 1025,3 hPa 0,0 l/m 0,0 km/h (0 Bft) 0 min 0 min 0,0 km/h (0 Bft)
08.02.2011 17:42 16,8 C 8,1 C 0,0 UV-I 0,0 C 42 % 58 % 0 % 1025,3 hPa 0,0 l/m 0,0 km/h (0 Bft) 0 min 0 min 0,0 km/h (0 Bft)
08.02.2011 17:44 16,8 C 8,1 C 0,0 UV-I 0,0 C 42 % 58 % 0 % 1025,3 hPa 0,0 l/m 0,0 km/h (0 Bft) 0 min 0 min 0,0 km/h (0 Bft)
08.02.2011 17:46 16,7 C 8,0 C 0,0 UV-I 0,0 C 42 % 59 % 0 % 1025,1 hPa 0,0 l/m 0,0 km/h (0 Bft) 0 min 0 min 0,0 km/h (0 Bft)
08.02.2011 17:48 16,7 C 7,9 C 0,0 UV-I 0,0 C 43 % 59 % 0 % 1025,1 hPa 0,0 l/m 0,0 km/h (0 Bft) 0 min 0 min 0,0 km/h (0 Bft)
08.02.2011 17:50 16,6 C 7,7 C 0,0 UV-I 0,0 C 43 % 59 % 0 % 1025,1 hPa 0,0 l/m 0,0 km/h (0 Bft) 0 min 0 min 0,0 km/h (0 Bft)
08.02.2011 17:52 16,6 C 7,7 C 0,0 UV-I 0,0 C 43 % 59 % 0 % 1025,1 hPa 0,0 l/m 0,0 km/h (0 Bft) 0 min 0 min 0,0 km/h (0 Bft)
08.02.2011 17:54 16,5 C 7,6 C 0,0 UV-I 0,0 C 43 % 60 % 0 % 1025,1 hPa 0,0 l/m 0,0 km/h (0 Bft) 0 min 0 min 0,0 km/h (0 Bft)
08.02.2011 17:56 16,5 C 7,6 C 0,0 UV-I 0,0 C 43 % 60 % 0 % 1025,1 hPa 0,0 l/m 0,0 km/h (0 Bft) 0 min 0 min 0,0 km/h (0 Bft)
08.02.2011 17:58 16,4 C 7,5 C 0,0 UV-I 0,0 C 43 % 60 % 0 % 1025,1 hPa 0,0 l/m 0,0 km/h (0 Bft) 0 min 0 min 0,0 km/h (0 Bft)
08.02.2011 18:00 16,4 C 7,3 C 0,0 UV-I 0,0 C 43 % 61 % 0 % 1025,1 hPa 0,0 l/m 0,0 km/h (0 Bft) 0 min 0 min 0,0 km/h (0 Bft)
08.02.2011 18:02 16,4 C 7,2 C 0,0 UV-I 0,0 C 43 % 61 % 0 % 1025,1 hPa 0,0 l/m 0,0 km/h (0 Bft) 0 min 0 min 0,0 km/h (0 Bft)
08.02.2011 18:04 16,2 C 7,2 C 0,0 UV-I 0,0 C 43 % 61 % 0 % 1025,1 hPa 0,0 l/m 0,0 km/h (0 Bft) 0 min 0 min 0,0 km/h (0 Bft)
08.02.2011 18:06 16,3 C 7,0 C 0,0 UV-I 0,0 C 43 % 61 % 0 % 1024,9 hPa 0,0 l/m 0,0 km/h (0 Bft) 0 min 0 min 0,0 km/h (0 Bft)
08.02.2011 18:08 16,3 C 6,9 C 0,0 UV-I 0,0 C 43 % 61 % 0 % 1024,9 hPa 0,0 l/m 0,0 km/h (0 Bft) 0 min 0 min 0,0 km/h (0 Bft)
08.02.2011 18:10 16,2 C 6,8 C 0,0 UV-I 0,0 C 43 % 62 % 0 % 1024,9 hPa 0,0 l/m 0,0 km/h (0 Bft) 0 min 0 min 0,0 km/h (0 Bft)
08.02.2011 18:12 16,2 C 6,7 C 0,0 UV-I 0,0 C 43 % 62 % 0 % 1024,9 hPa 0,0 l/m 0,0 km/h (0 Bft) 0 min 0 min 0,0 km/h (0 Bft)
08.02.2011 18:14 16,2 C 6,6 C 0,0 UV-I 0,0 C 43 % 62 % 0 % 1024,9 hPa 0,0 l/m 0,0 km/h (0 Bft) 0 min 0 min 0,0 km/h (0 Bft)
08.02.2011 18:16 16,1 C 6,5 C 0,0 UV-I 0,0 C 43 % 63 % 0 % 1024,9 hPa 0,0 l/m 0,0 km/h (0 Bft) 0 min 0 min 0,0 km/h (0 Bft)
08.02.2011 18:18 16,1 C 6,4 C 0,0 UV-I 0,0 C 43 % 63 % 0 % 1024,9 hPa 0,0 l/m 0,0 km/h (0 Bft) 0 min 0 min 0,0 km/h (0 Bft)
08.02.2011 18:20 15,9 C 6,4 C 0,0 UV-I 0,0 C 44 % 63 % 0 % 1024,9 hPa 0,0 l/m 0,0 km/h (0 Bft) 0 min 0 min 0,0 km/h (0 Bft)
08.02.2011 18:22 16,0 C 6,3 C 0,0 UV-I 0,0 C 44 % 64 % 0 % 1024,9 hPa 0,0 l/m 0,0 km/h (0 Bft) 0 min 0 min 0,0 km/h (0 Bft)
08.02.2011 18:24 16,0 C 6,3 C 0,0 UV-I 0,0 C 44 % 64 % 0 % 1024,9 hPa 0,0 l/m 0,0 km/h (0 Bft) 0 min 0 min 0,0 km/h (0 Bft)
08.02.2011 18:26 15,8 C 6,1 C 0,0 UV-I 0,0 C 44 % 64 % 0 % 1025,2 hPa 0,0 l/m 0,0 km/h (0 Bft) 0 min 0 min 0,0 km/h (0 Bft)
08.02.2011 18:28 15,8 C 6,0 C 0,0 UV-I 0,0 C 44 % 64 % 0 % 1025,2 hPa 0,0 l/m 0,0 km/h (0 Bft) 0 min 0 min 0,0 km/h (0 Bft)
08.02.2011 18:30 15,9 C 5,9 C 0,0 UV-I 0,0 C 44 % 64 % 0 % 1025,2 hPa 0,0 l/m 0,0 km/h (0 Bft) 0 min 0 min 0,0 km/h (0 Bft)
08.02.2011 18:32 15,8 C 5,9 C 0,0 UV-I 0,0 C 44 % 65 % 0 % 1025,2 hPa 0,0 l/m 0,0 km/h (0 Bft) 0 min 0 min 0,0 km/h (0 Bft)
08.02.2011 18:34 15,8 C 5,7 C 0,0 UV-I 0,0 C 44 % 65 % 0 % 1025,2 hPa 0,0 l/m 0,0 km/h (0 Bft) 0 min 0 min 0,0 km/h (0 Bft)
08.02.2011 18:36 15,8 C 5,7 C 0,0 UV-I 0,0 C 44 % 65 % 0 % 1025,2 hPa 0,0 l/m 0,0 km/h (0 Bft) 0 min 0 min 0,0 km/h (0 Bft)
08.02.2011 18:38 15,6 C 5,5 C 0,0 UV-I 0,0 C 44 % 66 % 0 % 1025,2 hPa 0,0 l/m 0,0 km/h (0 Bft) 0 min 0 min 0,0 km/h (0 Bft)
08.02.2011 18:40 15,6 C 5,5 C 0,0 UV-I 0,0 C 44 % 66 % 0 % 1025,2 hPa 0,0 l/m 0,0 km/h (0 Bft) 0 min 0 min 0,0 km/h (0 Bft)
08.02.2011 18:42 15,6 C 5,3 C 0,0 UV-I 0,0 C 44 % 66 % 0 % 1025,2 hPa 0,0 l/m 0,0 km/h (0 Bft) 0 min 0 min 0,0 km/h (0 Bft)
08.02.2011 18:44 15,6 C 5,3 C 0,0 UV-I 0,0 C 44 % 66 % 0 % 1025,2 hPa 0,0 l/m 0,0 km/h (0 Bft) 0 min 0 min 0,0 km/h (0 Bft)
08.02.2011 18:46 15,6 C 5,2 C 0,0 UV-I 0,0 C 44 % 67 % 0 % 1025,2 hPa 0,0 l/m 0,0 km/h (0 Bft) 0 min 0 min 0,0 km/h (0 Bft)
08.02.2011 18:48 15,6 C 5,2 C 0,0 UV-I 0,0 C 44 % 67 % 0 % 1025,2 hPa 0,0 l/m 0,0 km/h (0 Bft) 0 min 0 min 0,0 km/h (0 Bft)
08.02.2011 18:50 15,6 C 5,1 C 0,0 UV-I 0,0 C 44 % 67 % 0 % 1025,2 hPa 0,0 l/m 0,0 km/h (0 Bft) 0 min 0 min 0,0 km/h (0 Bft)
08.02.2011 18:52 15,4 C 5,1 C 0,0 UV-I 0,0 C 44 % 67 % 0 % 1025,2 hPa 0,0 l/m 0,0 km/h (0 Bft) 0 min 0 min 0,0 km/h (0 Bft)
08.02.2011 18:54 15,5 C 5,0 C 0,0 UV-I 0,0 C 45 % 68 % 0 % 1025,2 hPa 0,0 l/m 0,0 km/h (0 Bft) 0 min 0 min 0,0 km/h (0 Bft)
08.02.2011 18:56 15,5 C 4,8 C 0,0 UV-I 0,0 C 44 % 68 % 0 % 1025,2 hPa 0,0 l/m 0,0 km/h (0 Bft) 0 min 0 min 0,0 km/h (0 Bft)
08.02.2011 18:58 15,3 C 4,8 C 0,0 UV-I 0,0 C 45 % 68 % 0 % 1025,2 hPa 0,0 l/m 0,0 km/h (0 Bft) 0 min 0 min 0,0 km/h (0 Bft)
08.02.2011 19:00 15,4 C 4,8 C 0,0 UV-I 0,0 C 45 % 68 % 0 % 1025,2 hPa 0,0 l/m 0,0 km/h (0 Bft) 0 min 0 min 0,0 km/h (0 Bft)
08.02.2011 19:02 15,4 C 4,7 C 0,0 UV-I 0,0 C 45 % 68 % 0 % 1025,2 hPa 0,0 l/m 0,0 km/h (0 Bft) 0 min 0 min 0,0 km/h (0 Bft)
08.02.2011 19:04 15,4 C 4,6 C 0,0 UV-I 0,0 C 45 % 68 % 0 % 1025,2 hPa 0,0 l/m 0,0 km/h (0 Bft) 0 min 0 min 0,0 km/h (0 Bft)
08.02.2011 19:06 15,2 C 4,5 C 0,0 UV-I 0,0 C 45 % 69 % 0 % 1024,9 hPa 0,0 l/m 0,0 km/h (0 Bft) 0 min 0 min 0,0 km/h (0 Bft)
08.02.2011 19:08 15,2 C 4,5 C 0,0 UV-I 0,0 C 45 % 69 % 0 % 1024,9 hPa 0,0 l/m 0,0 km/h (0 Bft) 0 min 0 min 0,0 km/h (0 Bft)
08.02.2011 19:10 15,1 C 4,5 C 0,0 UV-I 0,0 C 45 % 70 % 0 % 1024,9 hPa 0,0 l/m 0,0 km/h (0 Bft) 0 min 0 min 0,0 km/h (0 Bft)
08.02.2011 19:12 15,1 C 4,4 C 0,0 UV-I 0,0 C 45 % 70 % 0 % 1024,9 hPa 0,0 l/m 0,0 km/h (0 Bft) 0 min 0 min 0,0 km/h (0 Bft)
08.02.2011 19:14 15,1 C 4,4 C 0,0 UV-I 0,0 C 45 % 70 % 0 % 1024,9 hPa 0,0 l/m 0,0 km/h (0 Bft) 0 min 0 min 0,0 km/h (0 Bft)
08.02.2011 19:16 15,2 C 4,3 C 0,0 UV-I 0,0 C 45 % 70 % 0 % 1024,9 hPa 0,0 l/m 0,0 km/h (0 Bft) 0 min 0 min 0,0 km/h (0 Bft)
08.02.2011 19:18 15,2 C 4,2 C 0,0 UV-I 0,0 C 45 % 70 % 0 % 1024,9 hPa 0,0 l/m 0,0 km/h (0 Bft) 0 min 0 min 0,0 km/h (0 Bft)
08.02.2011 19:20 15,1 C 4,3 C 0,0 UV-I 0,0 C 45 % 70 % 0 % 1024,9 hPa 0,0 l/m 0,0 km/h (0 Bft) 0 min 0 min 0,0 km/h (0 Bft)
08.02.2011 19:22 15,1 C 4,1 C 0,0 UV-I 0,0 C 45 % 70 % 0 % 1024,9 hPa 0,0 l/m 0,0 km/h (0 Bft) 0 min 0 min 0,0 km/h (0 Bft)
08.02.2011 19:24 15,1 C 4,0 C 0,0 UV-I 0,0 C 45 % 70 % 0 % 1024,9 hPa 0,0 l/m 0,0 km/h (0 Bft) 0 min 0 min 0,0 km/h (0 Bft)
08.02.2011 19:26 14,9 C 4,0 C 0,0 UV-I 0,0 C 45 % 70 % 0 % 1024,7 hPa 0,0 l/m 0,0 km/h (0 Bft) 0 min 0 min 0,0 km/h (0 Bft)
08.02.2011 19:28 14,9 C 3,9 C 0,0 UV-I 0,0 C 45 % 71 % 0 % 1024,7 hPa 0,0 l/m 0,0 km/h (0 Bft) 0 min 0 min 0,0 km/h (0 Bft)
08.02.2011 19:30 15,0 C 3,8 C 0,0 UV-I 0,0 C 45 % 71 % 0 % 1024,7 hPa 0,0 l/m 0,0 km/h (0 Bft) 0 min 0 min 0,0 km/h (0 Bft)
08.02.2011 19:32 15,0 C 3,7 C 0,0 UV-I 0,0 C 45 % 71 % 0 % 1024,7 hPa 0,0 l/m 0,0 km/h (0 Bft) 0 min 0 min 0,0 km/h (0 Bft)
08.02.2011 19:34 14,8 C 3,7 C 0,0 UV-I 0,0 C 45 % 72 % 0 % 1024,7 hPa 0,0 l/m 0,0 km/h (0 Bft) 0 min 0 min 0,0 km/h (0 Bft)
08.02.2011 19:36 15,0 C 3,6 C 0,0 UV-I 0,0 C 45 % 72 % 0 % 1024,7 hPa 0,0 l/m 0,0 km/h (0 Bft) 0 min 0 min 0,0 km/h (0 Bft)
08.02.2011 19:38 14,8 C 3,7 C 0,0 UV-I 0,0 C 45 % 72 % 0 % 1024,7 hPa 0,0 l/m 0,0 km/h (0 Bft) 0 min 0 min 0,0 km/h (0 Bft)
08.02.2011 19:40 14,8 C 3,6 C 0,0 UV-I 0,0 C 45 % 73 % 0 % 1024,7 hPa 0,0 l/m 0,0 km/h (0 Bft) 0 min 0 min 0,0 km/h (0 Bft)
08.02.2011 19:42 14,8 C 3,5 C 0,0 UV-I 0,0 C 45 % 73 % 0 % 1024,7 hPa 0,0 l/m 0,0 km/h (0 Bft) 0 min 0 min 0,0 km/h (0 Bft)
08.02.2011 19:44 14,8 C 3,5 C 0,0 UV-I 0,0 C 45 % 74 % 0 % 1024,7 hPa 0,0 l/m 0,0 km/h (0 Bft) 0 min 0 min 0,0 km/h (0 Bft)
08.02.2011 19:46 14,8 C 3,4 C 0,0 UV-I 0,0 C 45 % 74 % 0 % 1024,8 hPa 0,0 l/m 0,0 km/h (0 Bft) 0 min 0 min 0,0 km/h (0 Bft)
08.02.2011 19:48 14,8 C 3,3 C 0,0 UV-I 0,0 C 46 % 74 % 0 % 1024,8 hPa 0,0 l/m 0,0 km/h (0 Bft) 0 min 0 min 0,0 km/h (0 Bft)
08.02.2011 19:50 14,8 C 3,2 C 0,0 UV-I 0,0 C 46 % 74 % 0 % 1024,8 hPa 0,0 l/m 0,0 km/h (0 Bft) 0 min 0 min 0,0 km/h (0 Bft)
08.02.2011 19:52 14,8 C 3,2 C 0,0 UV-I 0,0 C 46 % 74 % 0 % 1024,8 hPa 0,0 l/m 0,0 km/h (0 Bft) 0 min 0 min 0,0 km/h (0 Bft)
08.02.2011 19:54 14,6 C 3,2 C 0,0 UV-I 0,0 C 46 % 75 % 0 % 1024,8 hPa 0,0 l/m 0,0 km/h (0 Bft) 0 min 0 min 0,0 km/h (0 Bft)
08.02.2011 19:56 14,7 C 3,2 C 0,0 UV-I 0,0 C 46 % 75 % 0 % 1024,8 hPa 0,0 l/m 0,0 km/h (0 Bft) 0 min 0 min 0,0 km/h (0 Bft)
08.02.2011 19:58 14,7 C 3,1 C 0,0 UV-I 0,0 C 46 % 75 % 0 % 1024,8 hPa 0,0 l/m 0,0 km/h (0 Bft) 0 min 0 min 0,0 km/h (0 Bft)
08.02.2011 20:00 14,7 C 3,0 C 0,0 UV-I 0,0 C 46 % 75 % 0 % 1024,8 hPa 0,0 l/m 0,0 km/h (0 Bft) 0 min 0 min 0,0 km/h (0 Bft)
08.02.2011 20:02 14,6 C 3,0 C 0,0 UV-I 0,0 C 46 % 75 % 0 % 1024,8 hPa 0,0 l/m 0,0 km/h (0 Bft) 0 min 0 min 0,0 km/h (0 Bft)
08.02.2011 20:04 14,6 C 2,9 C 0,0 UV-I 0,0 C 46 % 75 % 0 % 1024,8 hPa 0,0 l/m 0,0 km/h (0 Bft) 0 min 0 min 0,0 km/h (0 Bft)
08.02.2011 20:06 14,6 C 2,8 C 0,0 UV-I 0,0 C 46 % 75 % 0 % 1024,4 hPa 0,0 l/m 0,0 km/h (0 Bft) 0 min 0 min 0,0 km/h (0 Bft)
08.02.2011 20:08 14,6 C 2,9 C 0,0 UV-I 0,0 C 46 % 76 % 0 % 1024,4 hPa 0,0 l/m 0,0 km/h (0 Bft) 0 min 0 min 0,0 km/h (0 Bft)
08.02.2011 20:10 14,6 C 2,8 C 0,0 UV-I 0,0 C 46 % 76 % 0 % 1024,4 hPa 0,0 l/m 0,0 km/h (0 Bft) 0 min 0 min 0,0 km/h (0 Bft)
08.02.2011 20:12 14,4 C 2,7 C 0,0 UV-I 0,0 C 46 % 76 % 0 % 1024,4 hPa 0,0 l/m 0,0 km/h (0 Bft) 0 min 0 min 0,0 km/h (0 Bft)
08.02.2011 20:14 14,4 C 2,7 C 0,0 UV-I 0,0 C 46 % 77 % 0 % 1024,4 hPa 0,0 l/m 0,0 km/h (0 Bft) 0 min 0 min 0,0 km/h (0 Bft)
08.02.2011 20:16 14,4 C 2,7 C 0,0 UV-I 0,0 C 46 % 77 % 0 % 1024,4 hPa 0,0 l/m 0,0 km/h (0 Bft) 0 min 0 min 0,0 km/h (0 Bft)
08.02.2011 20:18 14,5 C 2,7 C 0,0 UV-I 0,0 C 46 % 77 % 0 % 1024,4 hPa 0,0 l/m 0,0 km/h (0 Bft) 0 min 0 min 0,0 km/h (0 Bft)
08.02.2011 20:20 14,3 C 2,7 C 0,0 UV-I 0,0 C 46 % 77 % 0 % 1024,4 hPa 0,0 l/m 0,0 km/h (0 Bft) 0 min 0 min 0,0 km/h (0 Bft)
08.02.2011 20:22 14,3 C 2,6 C 0,0 UV-I 0,0 C 46 % 77 % 0 % 1024,4 hPa 0,0 l/m 0,0 km/h (0 Bft) 0 min 0 min 0,0 km/h (0 Bft)
08.02.2011 20:24 14,3 C 2,7 C 0,0 UV-I 0,0 C 46 % 78 % 0 % 1024,4 hPa 0,0 l/m 0,0 km/h (0 Bft) 0 min 0 min 0,0 km/h (0 Bft)
08.02.2011 20:26 14,3 C 2,6 C 0,0 UV-I 0,0 C 46 % 78 % 0 % 1024,6 hPa 0,0 l/m 0,0 km/h (0 Bft) 0 min 0 min 0,0 km/h (0 Bft)
08.02.2011 20:28 14,4 C 2,5 C 0,0 UV-I 0,0 C 46 % 78 % 0 % 1024,6 hPa 0,0 l/m 0,0 km/h (0 Bft) 0 min 0 min 0,0 km/h (0 Bft)
08.02.2011 20:30 14,4 C 2,5 C 0,0 UV-I 0,0 C 46 % 78 % 0 % 1024,6 hPa 0,0 l/m 0,0 km/h (0 Bft) 0 min 0 min 0,0 km/h (0 Bft)
08.02.2011 20:32 14,4 C 2,5 C 0,0 UV-I 0,0 C 46 % 78 % 0 % 1024,6 hPa 0,0 l/m 0,0 km/h (0 Bft) 0 min 0 min 0,0 km/h (0 Bft)
08.02.2011 20:34 14,4 C 2,4 C 0,0 UV-I 0,0 C 46 % 78 % 0 % 1024,6 hPa 0,0 l/m 0,0 km/h (0 Bft) 0 min 0 min 0,0 km/h (0 Bft)
08.02.2011 20:36 14,4 C 2,4 C 0,0 UV-I 0,0 C 46 % 78 % 0 % 1024,6 hPa 0,0 l/m 0,0 km/h (0 Bft) 0 min 0 min 0,0 km/h (0 Bft)
08.02.2011 20:38 14,4 C 2,5 C 0,0 UV-I 0,0 C 46 % 78 % 0 % 1024,6 hPa 0,0 l/m 0,0 km/h (0 Bft) 0 min 0 min 0,0 km/h (0 Bft)
08.02.2011 20:40 14,2 C 2,4 C 0,0 UV-I 0,0 C 46 % 78 % 0 % 1024,6 hPa 0,0 l/m 0,0 km/h (0 Bft) 0 min 0 min 0,0 km/h (0 Bft)
08.02.2011 20:42 14,2 C 2,3 C 0,0 UV-I 0,0 C 46 % 78 % 0 % 1024,6 hPa 0,0 l/m 0,0 km/h (0 Bft) 0 min 0 min 0,0 km/h (0 Bft)
08.02.2011 20:44 14,1 C 2,3 C 0,0 UV-I 0,0 C 46 % 79 % 0 % 1024,6 hPa 0,0 l/m 0,0 km/h (0 Bft) 0 min 0 min 0,0 km/h (0 Bft)
08.02.2011 20:46 14,3 C 2,3 C 0,0 UV-I 0,0 C 47 % 79 % 0 % 1024,9 hPa 0,0 l/m 0,0 km/h (0 Bft) 0 min 0 min 0,0 km/h (0 Bft)
08.02.2011 20:48 14,1 C 2,3 C 0,0 UV-I 0,0 C 47 % 79 % 0 % 1024,9 hPa 0,0 l/m 0,0 km/h (0 Bft) 0 min 0 min 0,0 km/h (0 Bft)
08.02.2011 20:50 14,1 C 2,2 C 0,0 UV-I 0,0 C 47 % 79 % 0 % 1024,9 hPa 0,0 l/m 0,0 km/h (0 Bft) 0 min 0 min 0,0 km/h (0 Bft)
08.02.2011 20:52 14,2 C 2,3 C 0,0 UV-I 0,0 C 47 % 80 % 0 % 1024,9 hPa 0,0 l/m 0,0 km/h (0 Bft) 0 min 0 min 0,0 km/h (0 Bft)
08.02.2011 20:54 14,2 C 2,3 C 0,0 UV-I 0,0 C 47 % 80 % 0 % 1024,9 hPa 0,0 l/m 0,0 km/h (0 Bft) 0 min 0 min 0,0 km/h (0 Bft)
08.02.2011 20:56 14,2 C 2,3 C 0,0 UV-I 0,0 C 47 % 80 % 0 % 1024,9 hPa 0,0 l/m 0,0 km/h (0 Bft) 0 min 0 min 0,0 km/h (0 Bft)
08.02.2011 20:58 14,2 C 2,1 C 0,0 UV-I 0,0 C 47 % 80 % 0 % 1024,9 hPa 0,0 l/m 0,0 km/h (0 Bft) 0 min 0 min 0,0 km/h (0 Bft)
08.02.2011 21:00 14,2 C 2,1 C 0,0 UV-I 0,0 C 47 % 80 % 0 % 1024,9 hPa 0,0 l/m 0,0 km/h (0 Bft) 0 min 0 min 0,0 km/h (0 Bft)
08.02.2011 21:02 14,1 C 2,0 C 0,0 UV-I 0,0 C 47 % 80 % 0 % 1024,9 hPa 0,0 l/m 0,0 km/h (0 Bft) 0 min 0 min 0,0 km/h (0 Bft)
08.02.2011 21:04 14,1 C 2,0 C 0,0 UV-I 0,0 C 47 % 80 % 0 % 1024,9 hPa 0,0 l/m 0,0 km/h (0 Bft) 0 min 0 min 0,0 km/h (0 Bft)
08.02.2011 21:06 14,1 C 2,1 C 0,0 UV-I 0,0 C 47 % 81 % 0 % 1024,9 hPa 0,0 l/m 0,0 km/h (0 Bft) 0 min 0 min 0,0 km/h (0 Bft)
08.02.2011 21:08 14,1 C 2,0 C 0,0 UV-I 0,0 C 47 % 81 % 0 % 1024,9 hPa 0,0 l/m 0,0 km/h (0 Bft) 0 min 0 min 0,0 km/h (0 Bft)
08.02.2011 21:10 14,1 C 1,9 C 0,0 UV-I 0,0 C 47 % 81 % 0 % 1024,9 hPa 0,0 l/m 0,0 km/h (0 Bft) 0 min 0 min 0,0 km/h (0 Bft)
08.02.2011 21:12 14,1 C 1,9 C 0,0 UV-I 0,0 C 47 % 81 % 0 % 1024,9 hPa 0,0 l/m 0,0 km/h (0 Bft) 0 min 0 min 0,0 km/h (0 Bft)
08.02.2011 21:14 14,1 C 1,9 C 0,0 UV-I 0,0 C 47 % 81 % 0 % 1024,9 hPa 0,0 l/m 0,0 km/h (0 Bft) 0 min 0 min 0,0 km/h (0 Bft)
08.02.2011 21:16 13,9 C 1,9 C 0,0 UV-I 0,0 C 47 % 81 % 0 % 1024,9 hPa 0,0 l/m 0,0 km/h (0 Bft) 0 min 0 min 0,0 km/h (0 Bft)
08.02.2011 21:18 13,9 C 1,9 C 0,0 UV-I 0,0 C 47 % 81 % 0 % 1024,9 hPa 0,0 l/m 0,0 km/h (0 Bft) 0 min 0 min 0,0 km/h (0 Bft)
08.02.2011 21:20 13,9 C 1,9 C 0,0 UV-I 0,0 C 47 % 81 % 0 % 1024,9 hPa 0,0 l/m 0,0 km/h (0 Bft) 0 min 0 min 0,0 km/h (0 Bft)
08.02.2011 21:22 13,9 C 1,8 C 0,0 UV-I 0,0 C 47 % 81 % 0 % 1024,9 hPa 0,0 l/m 0,0 km/h (0 Bft) 0 min 0 min 0,0 km/h (0 Bft)
08.02.2011 21:24 14,0 C 1,8 C 0,0 UV-I 0,0 C 47 % 81 % 0 % 1024,9 hPa 0,0 l/m 0,0 km/h (0 Bft) 0 min 0 min 0,0 km/h (0 Bft)
08.02.2011 21:26 14,0 C 1,7 C 0,0 UV-I 0,0 C 47 % 82 % 0 % 1024,9 hPa 0,0 l/m 0,0 km/h (0 Bft) 0 min 0 min 0,0 km/h (0 Bft)
08.02.2011 21:28 14,0 C 1,7 C 0,0 UV-I 0,0 C 47 % 82 % 0 % 1024,9 hPa 0,0 l/m 0,0 km/h (0 Bft) 0 min 0 min 0,0 km/h (0 Bft)
08.02.2011 21:30 14,0 C 1,6 C 0,0 UV-I 0,0 C 47 % 82 % 0 % 1024,9 hPa 0,0 l/m 0,0 km/h (0 Bft) 0 min 0 min 0,0 km/h (0 Bft)
08.02.2011 21:32 14,0 C 1,7 C 0,0 UV-I 0,0 C 47 % 82 % 0 % 1024,9 hPa 0,0 l/m 0,0 km/h (0 Bft) 0 min 0 min 0,0 km/h (0 Bft)
08.02.2011 21:34 14,0 C 1,6 C 0,0 UV-I 0,0 C 47 % 82 % 0 % 1024,9 hPa 0,0 l/m 0,0 km/h (0 Bft) 0 min 0 min 0,0 km/h (0 Bft)
08.02.2011 21:36 14,0 C 1,5 C 0,0 UV-I 0,0 C 47 % 82 % 0 % 1024,9 hPa 0,0 l/m 0,0 km/h (0 Bft) 0 min 0 min 0,0 km/h (0 Bft)
08.02.2011 21:38 13,8 C 1,5 C 0,0 UV-I 0,0 C 47 % 82 % 0 % 1024,9 hPa 0,0 l/m 0,0 km/h (0 Bft) 0 min 0 min 0,0 km/h (0 Bft)
08.02.2011 21:40 13,9 C 1,5 C 0,0 UV-I 0,0 C 47 % 82 % 0 % 1024,9 hPa 0,0 l/m 0,0 km/h (0 Bft) 0 min 0 min 0,0 km/h (0 Bft)
08.02.2011 21:42 13,9 C 1,4 C 0,0 UV-I 0,0 C 47 % 82 % 0 % 1024,9 hPa 0,0 l/m 0,0 km/h (0 Bft) 0 min 0 min 0,0 km/h (0 Bft)
08.02.2011 21:44 13,9 C 1,4 C 0,0 UV-I 0,0 C 47 % 82 % 0 % 1024,9 hPa 0,0 l/m 0,0 km/h (0 Bft) 0 min 0 min 0,0 km/h (0 Bft)
08.02.2011 21:46 13,9 C 1,3 C 0,0 UV-I 0,0 C 47 % 82 % 0 % 1024,9 hPa 0,0 l/m 0,0 km/h (0 Bft) 0 min 0 min 0,0 km/h (0 Bft)
08.02.2011 21:48 13,8 C 1,3 C 0,0 UV-I 0,0 C 47 % 82 % 0 % 1024,9 hPa 0,0 l/m 0,0 km/h (0 Bft) 0 min 0 min 0,0 km/h (0 Bft)
08.02.2011 21:50 13,9 C 1,2 C 0,0 UV-I 0,0 C 47 % 82 % 0 % 1024,9 hPa 0,0 l/m 0,0 km/h (0 Bft) 0 min 0 min 0,0 km/h (0 Bft)
08.02.2011 21:52 13,8 C 1,2 C 0,0 UV-I 0,0 C 47 % 83 % 0 % 1024,9 hPa 0,0 l/m 0,0 km/h (0 Bft) 0 min 0 min 0,0 km/h (0 Bft)
08.02.2011 21:54 13,8 C 1,2 C 0,0 UV-I 0,0 C 47 % 83 % 0 % 1024,9 hPa 0,0 l/m 0,0 km/h (0 Bft) 0 min 0 min 0,0 km/h (0 Bft)
08.02.2011 21:56 13,8 C 1,1 C 0,0 UV-I 0,0 C 47 % 83 % 0 % 1024,9 hPa 0,0 l/m 0,0 km/h (0 Bft) 0 min 0 min 0,0 km/h (0 Bft)
08.02.2011 21:58 13,8 C 1,1 C 0,0 UV-I 0,0 C 47 % 83 % 0 % 1024,9 hPa 0,0 l/m 0,0 km/h (0 Bft) 0 min 0 min 0,0 km/h (0 Bft)
08.02.2011 22:00 13,8 C 1,0 C 0,0 UV-I 0,0 C 47 % 83 % 0 % 1024,9 hPa 0,0 l/m 0,0 km/h (0 Bft) 0 min 0 min 0,0 km/h (0 Bft)
08.02.2011 22:02 13,8 C 1,1 C 0,0 UV-I 0,0 C 47 % 83 % 0 % 1024,9 hPa 0,0 l/m 0,0 km/h (0 Bft) 0 min 0 min 0,0 km/h (0 Bft)
08.02.2011 22:04 13,8 C 1,0 C 0,0 UV-I 0,0 C 47 % 83 % 0 % 1024,9 hPa 0,0 l/m 0,0 km/h (0 Bft) 0 min 0 min 0,0 km/h (0 Bft)
08.02.2011 22:06 13,8 C 0,9 C 0,0 UV-I 0,0 C 47 % 83 % 0 % 1024,8 hPa 0,0 l/m 0,0 km/h (0 Bft) 0 min 0 min 0,0 km/h (0 Bft)
08.02.2011 22:08 13,8 C 0,9 C 0,0 UV-I 0,0 C 47 % 83 % 0 % 1024,8 hPa 0,0 l/m 0,0 km/h (0 Bft) 0 min 0 min 0,0 km/h (0 Bft)
08.02.2011 22:10 13,6 C 0,9 C 0,0 UV-I 0,0 C 47 % 83 % 0 % 1024,8 hPa 0,0 l/m 0,0 km/h (0 Bft) 0 min 0 min 0,0 km/h (0 Bft)
08.02.2011 22:12 13,8 C 0,9 C 0,0 UV-I 0,0 C 47 % 83 % 0 % 1024,8 hPa 0,0 l/m 0,0 km/h (0 Bft) 0 min 0 min 0,0 km/h (0 Bft)
08.02.2011 22:14 13,6 C 0,9 C 0,0 UV-I 0,0 C 47 % 84 % 0 % 1024,8 hPa 0,0 l/m 0,0 km/h (0 Bft) 0 min 0 min 0,0 km/h (0 Bft)
08.02.2011 22:16 13,6 C 0,9 C 0,0 UV-I 0,0 C 47 % 84 % 0 % 1024,8 hPa 0,0 l/m 0,0 km/h (0 Bft) 0 min 0 min 0,0 km/h (0 Bft)
08.02.2011 22:18 13,6 C 0,8 C 0,0 UV-I 0,0 C 47 % 84 % 0 % 1024,8 hPa 0,0 l/m 0,0 km/h (0 Bft) 0 min 0 min 0,0 km/h (0 Bft)
08.02.2011 22:20 13,6 C 0,8 C 0,0 UV-I 0,0 C 47 % 84 % 0 % 1024,8 hPa 0,0 l/m 0,0 km/h (0 Bft) 0 min 0 min 0,0 km/h (0 Bft)
08.02.2011 22:22 13,6 C 0,8 C 0,0 UV-I 0,0 C 47 % 84 % 0 % 1024,8 hPa 0,0 l/m 0,0 km/h (0 Bft) 0 min 0 min 0,0 km/h (0 Bft)
08.02.2011 22:24 13,6 C 0,9 C 0,0 UV-I 0,0 C 47 % 84 % 0 % 1024,8 hPa 0,0 l/m 0,0 km/h (0 Bft) 0 min 0 min 0,0 km/h (0 Bft)
08.02.2011 22:26 13,7 C 0,8 C 0,0 UV-I 0,0 C 47 % 84 % 0 % 1024,6 hPa 0,0 l/m 0,0 km/h (0 Bft) 0 min 0 min 0,0 km/h (0 Bft)
08.02.2011 22:28 13,7 C 0,7 C 0,0 UV-I 0,0 C 47 % 84 % 0 % 1024,6 hPa 0,0 l/m 0,0 km/h (0 Bft) 0 min 0 min 0,0 km/h (0 Bft)
08.02.2011 22:30 13,6 C 0,7 C 0,0 UV-I 0,0 C 47 % 84 % 0 % 1024,6 hPa 0,0 l/m 0,0 km/h (0 Bft) 0 min 0 min 0,0 km/h (0 Bft)
08.02.2011 22:32 13,6 C 0,7 C 0,0 UV-I 0,0 C 47 % 84 % 0 % 1024,6 hPa 0,0 l/m 0,0 km/h (0 Bft) 0 min 0 min 0,0 km/h (0 Bft)
08.02.2011 22:34 13,6 C 0,7 C 0,0 UV-I 0,0 C 47 % 84 % 0 % 1024,6 hPa 0,0 l/m 0,0 km/h (0 Bft) 0 min 0 min 0,0 km/h (0 Bft)
08.02.2011 22:36 13,6 C 0,6 C 0,0 UV-I 0,0 C 47 % 84 % 0 % 1024,6 hPa 0,0 l/m 0,0 km/h (0 Bft) 0 min 0 min 0,0 km/h (0 Bft)
08.02.2011 22:38 13,6 C 0,5 C 0,0 UV-I 0,0 C 47 % 84 % 0 % 1024,6 hPa 0,0 l/m 0,0 km/h (0 Bft) 0 min 0 min 0,0 km/h (0 Bft)
08.02.2011 22:40 13,6 C 0,5 C 0,0 UV-I 0,0 C 47 % 84 % 0 % 1024,6 hPa 0,0 l/m 0,0 km/h (0 Bft) 0 min 0 min 0,0 km/h (0 Bft)
08.02.2011 22:42 13,6 C 0,4 C 0,0 UV-I 0,0 C 47 % 84 % 0 % 1024,6 hPa 0,0 l/m 0,0 km/h (0 Bft) 0 min 0 min 0,0 km/h (0 Bft)
08.02.2011 22:44 13,6 C 0,4 C 0,0 UV-I 0,0 C 48 % 84 % 0 % 1024,6 hPa 0,0 l/m 0,0 km/h (0 Bft) 0 min 0 min 0,0 km/h (0 Bft)
08.02.2011 22:46 13,6 C 0,4 C 0,0 UV-I 0,0 C 47 % 85 % 0 % 1024,6 hPa 0,0 l/m 0,0 km/h (0 Bft) 0 min 0 min 0,0 km/h (0 Bft)
08.02.2011 22:48 13,6 C 0,4 C 0,0 UV-I 0,0 C 47 % 85 % 0 % 1024,6 hPa 0,0 l/m 0,0 km/h (0 Bft) 0 min 0 min 0,0 km/h (0 Bft)
08.02.2011 22:50 13,6 C 0,3 C 0,0 UV-I 0,0 C 47 % 85 % 0 % 1024,6 hPa 0,0 l/m 0,0 km/h (0 Bft) 0 min 0 min 0,0 km/h (0 Bft)
08.02.2011 22:52 13,6 C 0,3 C 0,0 UV-I 0,0 C 47 % 85 % 0 % 1024,6 hPa 0,0 l/m 0,0 km/h (0 Bft) 0 min 0 min 0,0 km/h (0 Bft)
08.02.2011 22:54 13,6 C 0,2 C 0,0 UV-I 0,0 C 47 % 85 % 0 % 1024,6 hPa 0,0 l/m 0,0 km/h (0 Bft) 0 min 0 min 0,0 km/h (0 Bft)
08.02.2011 22:56 13,6 C 0,3 C 0,0 UV-I 0,0 C 48 % 85 % 0 % 1024,6 hPa 0,0 l/m 0,0 km/h (0 Bft) 0 min 0 min 0,0 km/h (0 Bft)
08.02.2011 22:58 13,4 C 0,2 C 0,0 UV-I 0,0 C 47 % 85 % 0 % 1024,6 hPa 0,0 l/m 0,0 km/h (0 Bft) 0 min 0 min 0,0 km/h (0 Bft)
08.02.2011 23:00 13,4 C 0,1 C 0,0 UV-I 0,0 C 47 % 85 % 0 % 1024,6 hPa 0,0 l/m 0,0 km/h (0 Bft) 0 min 0 min 0,0 km/h (0 Bft)
08.02.2011 23:02 13,4 C 0,1 C 0,0 UV-I 0,0 C 47 % 85 % 0 % 1024,6 hPa 0,0 l/m 0,0 km/h (0 Bft) 0 min 0 min 0,0 km/h (0 Bft)
08.02.2011 23:04 13,5 C 0,1 C 0,0 UV-I 0,0 C 47 % 85 % 0 % 1024,6 hPa 0,0 l/m 0,0 km/h (0 Bft) 0 min 0 min 0,0 km/h (0 Bft)
08.02.2011 23:06 13,4 C 0,1 C 0,0 UV-I 0,0 C 47 % 85 % 0 % 1024,7 hPa 0,0 l/m 0,0 km/h (0 Bft) 0 min 0 min 0,0 km/h (0 Bft)
08.02.2011 23:08 13,5 C 0,1 C 0,0 UV-I 0,0 C 48 % 85 % 0 % 1024,7 hPa 0,0 l/m 0,0 km/h (0 Bft) 0 min 0 min 0,0 km/h (0 Bft)
08.02.2011 23:10 13,5 C 0,1 C 0,0 UV-I 0,0 C 47 % 85 % 0 % 1024,7 hPa 0,0 l/m 0,0 km/h (0 Bft) 0 min 0 min 0,0 km/h (0 Bft)
08.02.2011 23:12 13,5 C 0,1 C 0,0 UV-I 0,0 C 47 % 85 % 0 % 1024,7 hPa 0,0 l/m 0,0 km/h (0 Bft) 0 min 0 min 0,0 km/h (0 Bft)
08.02.2011 23:14 13,5 C 0,1 C 0,0 UV-I 0,0 C 47 % 86 % 0 % 1024,7 hPa 0,0 l/m 0,4 km/h (0 Bft) 0 min 0 min 5,5 km/h (1 Bft)
08.02.2011 23:16 13,5 C 0,2 C 0,0 UV-I 0,0 C 47 % 86 % 0 % 1024,7 hPa 0,0 l/m 0,4 km/h (0 Bft) 0 min 0 min 0,0 km/h (0 Bft)
08.02.2011 23:18 13,3 C 0,1 C 0,0 UV-I 0,0 C 48 % 86 % 0 % 1024,7 hPa 0,0 l/m 0,4 km/h (0 Bft) 0 min 0 min 0,0 km/h (0 Bft)
08.02.2011 23:20 13,3 C 0,3 C 0,0 UV-I 0,0 C 48 % 86 % 0 % 1024,7 hPa 0,0 l/m 0,4 km/h (0 Bft) 0 min 0 min 0,0 km/h (0 Bft)
08.02.2011 23:22 13,3 C 0,3 C 0,0 UV-I 0,0 C 48 % 86 % 0 % 1024,7 hPa 0,0 l/m 0,4 km/h (0 Bft) 0 min 0 min 0,0 km/h (0 Bft)
08.02.2011 23:24 13,4 C 0,3 C 0,0 UV-I 0,0 C 48 % 86 % 0 % 1024,7 hPa 0,0 l/m 0,0 km/h (0 Bft) 0 min 0 min 0,0 km/h (0 Bft)
08.02.2011 23:26 13,4 C 0,3 C 0,0 UV-I 0,0 C 48 % 86 % 0 % 1024,7 hPa 0,0 l/m 0,0 km/h (0 Bft) 0 min 0 min 0,0 km/h (0 Bft)
08.02.2011 23:28 13,4 C 0,3 C 0,0 UV-I 0,0 C 48 % 86 % 0 % 1024,7 hPa 0,0 l/m 0,0 km/h (0 Bft) 0 min 0 min 0,0 km/h (0 Bft)
08.02.2011 23:30 13,4 C 0,3 C 0,0 UV-I 0,0 C 48 % 86 % 0 % 1024,7 hPa 0,0 l/m 0,0 km/h (0 Bft) 0 min 0 min 0,0 km/h (0 Bft)
08.02.2011 23:32 13,4 C 0,3 C 0,0 UV-I 0,0 C 48 % 86 % 0 % 1024,7 hPa 0,0 l/m 0,0 km/h (0 Bft) 0 min 0 min 0,0 km/h (0 Bft)
08.02.2011 23:34 13,4 C 0,3 C 0,0 UV-I 0,0 C 47 % 86 % 0 % 1024,7 hPa 0,0 l/m 0,0 km/h (0 Bft) 0 min 0 min 0,0 km/h (0 Bft)
08.02.2011 23:36 13,4 C 0,3 C 0,0 UV-I 0,0 C 47 % 86 % 0 % 1024,7 hPa 0,0 l/m 0,0 km/h (0 Bft) 0 min 0 min 0,0 km/h (0 Bft)
08.02.2011 23:38 13,4 C 0,3 C 0,0 UV-I 0,0 C 48 % 86 % 0 % 1024,7 hPa 0,0 l/m 0,0 km/h (0 Bft) 0 min 0 min 0,0 km/h (0 Bft)
08.02.2011 23:40 13,4 C 0,3 C 0,0 UV-I 0,0 C 48 % 87 % 0 % 1024,7 hPa 0,0 l/m 0,0 km/h (0 Bft) 0 min 0 min 0,0 km/h (0 Bft)
08.02.2011 23:42 13,4 C 0,2 C 0,0 UV-I 0,0 C 48 % 87 % 0 % 1024,7 hPa 0,0 l/m 0,0 km/h (0 Bft) 0 min 0 min 0,0 km/h (0 Bft)
08.02.2011 23:44 13,2 C 0,2 C 0,0 UV-I 0,0 C 48 % 87 % 0 % 1024,7 hPa 0,0 l/m 0,0 km/h (0 Bft) 0 min 0 min 0,0 km/h (0 Bft)
08.02.2011 23:46 13,2 C 0,1 C 0,0 UV-I 0,0 C 48 % 87 % 0 % 1024,2 hPa 0,0 l/m 0,0 km/h (0 Bft) 0 min 0 min 0,0 km/h (0 Bft)
08.02.2011 23:48 13,2 C 0,1 C 0,0 UV-I 0,0 C 48 % 87 % 0 % 1024,2 hPa 0,0 l/m 0,0 km/h (0 Bft) 0 min 0 min 0,0 km/h (0 Bft)
08.02.2011 23:50 13,2 C 0,1 C 0,0 UV-I 0,0 C 48 % 86 % 0 % 1024,2 hPa 0,0 l/m 0,0 km/h (0 Bft) 0 min 0 min 0,0 km/h (0 Bft)
08.02.2011 23:52 13,2 C 0,0 C 0,0 UV-I 0,0 C 48 % 87 % 0 % 1024,2 hPa 0,0 l/m 0,0 km/h (0 Bft) 0 min 0 min 0,0 km/h (0 Bft)
08.02.2011 23:54 13,2 C 0,0 C 0,0 UV-I 0,0 C 48 % 87 % 0 % 1024,2 hPa 0,0 l/m 0,0 km/h (0 Bft) 0 min 0 min 0,0 km/h (0 Bft)
08.02.2011 23:56 13,2 C 0,1 C 0,0 UV-I 0,0 C 48 % 87 % 0 % 1024,2 hPa 0,0 l/m 0,0 km/h (0 Bft) 0 min 0 min 0,0 km/h (0 Bft)
08.02.2011 23:58 13,2 C -0,1 C 0,0 UV-I 0,0 C 48 % 87 % 0 % 1024,2 hPa 0,0 l/m 0,0 km/h (0 Bft) 0 min 0 min 0,0 km/h (0 Bft)
_ Min-Zeit 23:44 23:58 00:00 00:00 15:54 15:42 00:00 00:00 - 07:28 - - 00:52
Minimum _ 13,2 C -0,1 C 0,0 UV-I 0,0 C 41 % 52 % 0 % 1017,1 hPa - 0,0 km/h (0 Bft) - - 0,0 km/h (0 Bft)
_ Max-Zeit 16:08 14:34 11:30 11:02 00:00 23:40 09:38 13:46 00:00 00:02 09:34 00:00 00:22
Maximum _ 18,2 C 11,6 C 1,6 UV-I 8,1 C 53 % 87 % 100 % 1027,4 hPa 0,0 l/m 10,4 km/h
W-NW (2 Bft)
2 min 0 min 24,8 km/h
O (4 Bft)
Durchschnitt _ 14,8 C 6,6 C 0,1 UV-I 1,9 C 49 % 74 % 29 % 1023,1 hPa #0,0 l/m 2,5 km/h (1 Bft) #6:54 h #0 min. 3,0 km/h (1 Bft)
© 2012 W. Hausmann